| time (UTC) | temp F | wind direction | speed MPH | gust MPH | rain 1hr in | rain 24hr in | rain mn in | humidity % | barometer mb |
| 20260507091703 | 52 | 214 | 3.0 | 5.0 | 0.00 | 0.10 | 0.00 | 75 | 1013.2 |
| 20260507091603 | 52 | 215 | 3.0 | 6.0 | 0.00 | 0.10 | 0.00 | 75 | 1013.2 |
| 20260507091503 | 52 | 218 | 4.0 | 10.0 | 0.00 | 0.10 | 0.00 | 75 | 1013.2 |
| 20260507091404 | 51 | 220 | 4.0 | 10.0 | 0.00 | 0.10 | 0.00 | 75 | 1013.2 |
| 20260507091303 | 51 | 223 | 5.0 | 10.0 | 0.00 | 0.10 | 0.00 | 74 | 1013.2 |
| 20260507091203 | 51 | 224 | 6.0 | 10.0 | 0.00 | 0.10 | 0.00 | 75 | 1013.2 |
| 20260507091103 | 51 | 225 | 5.0 | 10.0 | 0.00 | 0.10 | 0.00 | 75 | 1013.2 |
| 20260507091003 | 51 | 224 | 5.0 | 10.0 | 0.00 | 0.10 | 0.00 | 74 | 1013.2 |
| 20260507090903 | 51 | 221 | 5.0 | 9.0 | 0.00 | 0.10 | 0.00 | 74 | 1013.1 |
| 20260507090803 | 51 | 220 | 6.0 | 14.0 | 0.00 | 0.10 | 0.00 | 75 | 1013.1 |
| 20260507090704 | 51 | 219 | 6.0 | 14.0 | 0.00 | 0.10 | 0.00 | 74 | 1013.1 |
| 20260507090603 | 52 | 220 | 6.0 | 14.0 | 0.00 | 0.10 | 0.00 | 73 | 1013.1 |
| 20260507090503 | 52 | 223 | 5.0 | 14.0 | 0.00 | 0.10 | 0.00 | 74 | 1013.1 |
| 20260507090403 | 52 | 226 | 4.0 | 9.0 | 0.00 | 0.10 | 0.00 | 75 | 1013.1 |
| 20260507090304 | 52 | 226 | 4.0 | 9.0 | 0.00 | 0.10 | 0.00 | 74 | 1013.1 |
| 20260507090203 | 52 | 226 | 4.0 | 8.0 | 0.00 | 0.10 | 0.00 | 74 | 1013.1 |
| 20260507090103 | 52 | 226 | 5.0 | 10.0 | 0.00 | 0.10 | 0.00 | 74 | 1013.1 |
| 20260507090005 | 52 | 227 | 5.0 | 10.0 | 0.00 | 0.10 | 0.00 | 75 | 1013.1 |
| 20260507085903 | 51 | 227 | 5.0 | 10.0 | 0.00 | 0.10 | 0.00 | 74 | 1013.1 |
| 20260507085803 | 52 | 228 | 5.0 | 10.0 | 0.00 | 0.10 | 0.00 | 74 | 1013.1 |
| 20260507085703 | 52 | 230 | 5.0 | 8.0 | 0.00 | 0.10 | 0.00 | 74 | 1013.1 |
| 20260507085604 | 52 | 230 | 5.0 | 10.0 | 0.00 | 0.10 | 0.00 | 75 | 1013.1 |
| 20260507085504 | 51 | 229 | 5.0 | 10.0 | 0.00 | 0.10 | 0.00 | 75 | 1013.1 |
| 20260507085403 | 51 | 227 | 6.0 | 12.0 | 0.00 | 0.10 | 0.00 | 75 | 1013.1 |
| 20260507085306 | 51 | 224 | 7.0 | 13.0 | 0.00 | 0.10 | 0.00 | 75 | 1013.1 |
| 20260507085203 | 51 | 223 | 7.0 | 13.0 | 0.00 | 0.10 | 0.00 | 76 | 1013.1 |
| 20260507085103 | 51 | 221 | 7.0 | 13.0 | 0.00 | 0.10 | 0.00 | 75 | 1013.1 |
| 20260507085003 | 51 | 219 | 6.0 | 13.0 | 0.00 | 0.10 | 0.00 | 75 | 1013.1 |
| 20260507084903 | 51 | 216 | 5.0 | 11.0 | 0.00 | 0.10 | 0.00 | 76 | 1013.0 |
| 20260507084803 | 51 | 217 | 5.0 | 10.0 | 0.00 | 0.10 | 0.00 | 75 | 1013.0 |
| 20260507084703 | 51 | 219 | 5.0 | 11.0 | 0.00 | 0.10 | 0.00 | 75 | 1013.0 |
| 20260507084603 | 51 | 219 | 6.0 | 13.0 | 0.00 | 0.10 | 0.00 | 77 | 1013.0 |
| 20260507084503 | 51 | 219 | 6.0 | 13.0 | 0.00 | 0.10 | 0.00 | 75 | 1013.0 |
| 20260507084404 | 51 | 217 | 5.0 | 13.0 | 0.00 | 0.10 | 0.00 | 75 | 1013.0 |
| 20260507084303 | 51 | 215 | 5.0 | 13.0 | 0.00 | 0.10 | 0.00 | 75 | 1013.0 |
| 20260507084203 | 51 | 216 | 5.0 | 10.0 | 0.00 | 0.10 | 0.00 | 75 | 1013.0 |
| 20260507084103 | 51 | 215 | 5.0 | 10.0 | 0.00 | 0.10 | 0.00 | 76 | 1013.0 |
| 20260507084004 | 51 | 214 | 6.0 | 13.0 | 0.00 | 0.10 | 0.00 | 76 | 1013.0 |
| 20260507083903 | 51 | 214 | 6.0 | 13.0 | 0.00 | 0.10 | 0.00 | 74 | 1012.9 |
| 20260507083803 | 51 | 211 | 5.0 | 13.0 | 0.00 | 0.10 | 0.00 | 74 | 1012.9 |
| 20260507083703 | 51 | 211 | 5.0 | 13.0 | 0.00 | 0.10 | 0.00 | 75 | 1012.9 |
| 20260507083603 | 51 | 211 | 5.0 | 13.0 | 0.00 | 0.10 | 0.00 | 74 | 1012.9 |
| 20260507083503 | 51 | 212 | 5.0 | 10.0 | 0.00 | 0.10 | 0.00 | 73 | 1012.9 |
| 20260507083403 | 51 | 214 | 5.0 | 10.0 | 0.00 | 0.10 | 0.00 | 74 | 1012.9 |
| 20260507083304 | 51 | 215 | 5.0 | 9.0 | 0.00 | 0.10 | 0.00 | 74 | 1012.9 |
| 20260507083203 | 51 | 216 | 5.0 | 9.0 | 0.00 | 0.10 | 0.00 | 74 | 1012.9 |
| 20260507083103 | 51 | 216 | 6.0 | 13.0 | 0.00 | 0.10 | 0.00 | 74 | 1012.9 |
| 20260507083004 | 51 | 216 | 7.0 | 13.0 | 0.00 | 0.10 | 0.00 | 74 | 1012.9 |
| 20260507082904 | 51 | 218 | 7.0 | 15.0 | 0.00 | 0.10 | 0.00 | 74 | 1012.9 |
| 20260507082803 | 51 | 219 | 8.0 | 15.0 | 0.00 | 0.10 | 0.00 | 74 | 1012.9 |
| 20260507082703 | 51 | 221 | 8.0 | 15.0 | 0.00 | 0.10 | 0.00 | 74 | 1012.9 |
| 20260507082603 | 51 | 221 | 8.0 | 15.0 | 0.00 | 0.10 | 0.00 | 74 | 1012.9 |
| 20260507082504 | 51 | 220 | 6.0 | 14.0 | 0.00 | 0.10 | 0.00 | 74 | 1012.9 |
| 20260507082403 | 51 | 219 | 6.0 | 14.0 | 0.00 | 0.10 | 0.00 | 74 | 1012.8 |
| 20260507082306 | 51 | 218 | 5.0 | 11.0 | 0.00 | 0.10 | 0.00 | 75 | 1012.8 |
| 20260507082203 | 51 | 216 | 4.0 | 9.0 | 0.00 | 0.10 | 0.00 | 74 | 1012.8 |
| 20260507082103 | 51 | 216 | 4.0 | 8.0 | 0.00 | 0.10 | 0.00 | 74 | 1012.8 |
| 20260507082003 | 51 | 213 | 4.0 | 10.0 | 0.00 | 0.10 | 0.00 | 75 | 1012.8 |
| 20260507081903 | 50 | 211 | 5.0 | 11.0 | 0.00 | 0.10 | 0.00 | 73 | 1012.8 |
| 20260507081803 | 51 | 212 | 6.0 | 12.0 | 0.00 | 0.10 | 0.00 | 74 | 1012.8 |
| 20260507081704 | 51 | 212 | 6.0 | 12.0 | 0.00 | 0.10 | 0.00 | 73 | 1012.7 |
| 20260507081603 | 51 | 213 | 6.0 | 12.0 | 0.00 | 0.10 | 0.00 | 73 | 1012.7 |
| 20260507081503 | 51 | 215 | 5.0 | 12.0 | 0.00 | 0.10 | 0.00 | 73 | 1012.7 |
| 20260507081403 | 51 | 215 | 5.0 | 13.0 | 0.00 | 0.10 | 0.00 | 73 | 1012.7 |
| 20260507081303 | 51 | 214 | 5.0 | 13.0 | 0.00 | 0.10 | 0.00 | 73 | 1012.7 |
| 20260507081203 | 51 | 213 | 5.0 | 13.0 | 0.00 | 0.10 | 0.00 | 74 | 1012.7 |
| 20260507081103 | 51 | 212 | 4.0 | 13.0 | 0.00 | 0.10 | 0.00 | 73 | 1012.7 |
| 20260507081004 | 51 | 212 | 4.0 | 12.0 | 0.00 | 0.10 | 0.00 | 74 | 1012.7 |
| 20260507080903 | 51 | 213 | 4.0 | 7.0 | 0.00 | 0.10 | 0.00 | 74 | 1012.7 |
| 20260507080803 | 51 | 214 | 5.0 | 14.0 | 0.00 | 0.10 | 0.00 | 74 | 1012.6 |
| 20260507080703 | 51 | 216 | 6.0 | 17.0 | 0.00 | 0.10 | 0.00 | 73 | 1012.6 |
| 20260507080604 | 51 | 217 | 7.0 | 17.0 | 0.00 | 0.10 | 0.00 | 73 | 1012.6 |
| 20260507080503 | 52 | 219 | 8.0 | 17.0 | 0.00 | 0.10 | 0.00 | 72 | 1012.6 |
| 20260507080403 | 52 | 219 | 8.0 | 17.0 | 0.00 | 0.10 | 0.00 | 73 | 1012.6 |
| 20260507080303 | 52 | 219 | 6.0 | 13.0 | 0.00 | 0.10 | 0.00 | 74 | 1012.6 |
| 20260507080204 | 52 | 218 | 7.0 | 13.0 | 0.00 | 0.10 | 0.00 | 73 | 1012.6 |
| 20260507080103 | 52 | 217 | 6.0 | 13.0 | 0.00 | 0.10 | 0.00 | 73 | 1012.6 |
| 20260507080003 | 52 | 218 | 5.0 | 13.0 | 0.00 | 0.10 | 0.00 | 73 | 1012.6 |
| 20260507075903 | 52 | 218 | 5.0 | 13.0 | 0.00 | 0.10 | 0.00 | 73 | 1012.6 |
| 20260507075803 | 52 | 220 | 5.0 | 9.0 | 0.00 | 0.10 | 0.00 | 74 | 1012.6 |
| 20260507075704 | 52 | 218 | 5.0 | 9.0 | 0.00 | 0.10 | 0.00 | 75 | 1012.6 |
| 20260507075603 | 51 | 217 | 5.0 | 9.0 | 0.00 | 0.10 | 0.00 | 75 | 1012.5 |
| 20260507075503 | 51 | 216 | 4.0 | 9.0 | 0.00 | 0.10 | 0.00 | 75 | 1012.5 |
| 20260507075403 | 51 | 214 | 4.0 | 11.0 | 0.00 | 0.10 | 0.00 | 75 | 1012.5 |
| 20260507075306 | 51 | 216 | 5.0 | 13.0 | 0.00 | 0.10 | 0.00 | 75 | 1012.5 |
| 20260507075203 | 51 | 216 | 6.0 | 13.0 | 0.00 | 0.10 | 0.00 | 74 | 1012.6 |
| 20260507075103 | 51 | 217 | 8.0 | 13.0 | 0.00 | 0.10 | 0.00 | 74 | 1012.6 |
| 20260507075003 | 51 | 218 | 9.0 | 13.0 | 0.00 | 0.10 | 0.00 | 74 | 1012.6 |
| 20260507074903 | 51 | 219 | 8.0 | 13.0 | 0.00 | 0.10 | 0.00 | 75 | 1012.6 |
| 20260507074803 | 51 | 220 | 8.0 | 13.0 | 0.00 | 0.10 | 0.00 | 74 | 1012.6 |
| 20260507074703 | 51 | 221 | 7.0 | 12.0 | 0.00 | 0.10 | 0.00 | 74 | 1012.6 |
| 20260507074604 | 51 | 220 | 6.0 | 12.0 | 0.00 | 0.10 | 0.00 | 75 | 1012.6 |
| 20260507074504 | 51 | 220 | 5.0 | 12.0 | 0.00 | 0.10 | 0.00 | 74 | 1012.6 |
| 20260507074403 | 51 | 222 | 4.0 | 12.0 | 0.00 | 0.10 | 0.00 | 74 | 1012.6 |
| 20260507074303 | 51 | 225 | 3.0 | 11.0 | 0.00 | 0.10 | 0.00 | 74 | 1012.6 |
| 20260507074203 | 51 | 228 | 3.0 | 7.0 | 0.00 | 0.10 | 0.00 | 76 | 1012.6 |
| 20260507074104 | 51 | 228 | 4.0 | 8.0 | 0.00 | 0.10 | 0.00 | 75 | 1012.5 |
| 20260507074003 | 51 | 225 | 6.0 | 15.0 | 0.00 | 0.10 | 0.00 | 76 | 1012.5 |
| 20260507073903 | 51 | 223 | 6.0 | 15.0 | 0.00 | 0.10 | 0.00 | 75 | 1012.5 |
| 20260507073803 | 51 | 220 | 7.0 | 15.0 | 0.00 | 0.10 | 0.00 | 76 | 1012.5 |
| 20260507073703 | 51 | 218 | 9.0 | 15.0 | 0.00 | 0.10 | 0.00 | 75 | 1012.5 |
| 20260507073603 | 51 | 217 | 8.0 | 14.0 | 0.00 | 0.10 | 0.00 | 75 | 1012.5 |
| 20260507073503 | 51 | 218 | 8.0 | 14.0 | 0.00 | 0.10 | 0.00 | 74 | 1012.5 |
| 20260507073403 | 51 | 220 | 8.0 | 15.0 | 0.00 | 0.10 | 0.00 | 75 | 1012.5 |
| 20260507073303 | 51 | 222 | 8.0 | 16.0 | 0.00 | 0.10 | 0.00 | 76 | 1012.5 |
| 20260507073203 | 51 | 221 | 7.0 | 16.0 | 0.00 | 0.10 | 0.00 | 75 | 1012.5 |
| 20260507073103 | 52 | 220 | 6.0 | 16.0 | 0.00 | 0.10 | 0.00 | 75 | 1012.5 |
| 20260507073004 | 52 | 216 | 5.0 | 16.0 | 0.00 | 0.10 | 0.00 | 76 | 1012.5 |
| 20260507072904 | 52 | 213 | 4.0 | 10.0 | 0.00 | 0.10 | 0.00 | 75 | 1012.4 |
| 20260507072803 | 52 | 213 | 4.0 | 10.0 | 0.00 | 0.10 | 0.00 | 75 | 1012.4 |
| 20260507072703 | 52 | 215 | 4.0 | 10.0 | 0.00 | 0.10 | 0.00 | 76 | 1012.4 |
| 20260507072603 | 52 | 217 | 4.0 | 9.0 | 0.00 | 0.10 | 0.00 | 78 | 1012.4 |
| 20260507072504 | 51 | 219 | 4.0 | 9.0 | 0.00 | 0.10 | 0.00 | 78 | 1012.4 |
| 20260507072403 | 51 | 219 | 5.0 | 9.0 | 0.00 | 0.10 | 0.00 | 77 | 1012.4 |
| 20260507072306 | 51 | 220 | 5.0 | 9.0 | 0.00 | 0.10 | 0.00 | 76 | 1012.4 |
| 20260507072203 | 51 | 221 | 5.0 | 9.0 | 0.00 | 0.10 | 0.00 | 76 | 1012.4 |
| 20260507072104 | 51 | 220 | 4.0 | 9.0 | 0.00 | 0.10 | 0.00 | 77 | 1012.3 |
| 20260507072003 | 51 | 219 | 5.0 | 9.0 | 0.00 | 0.10 | 0.00 | 77 | 1012.3 |
| 20260507071903 | 51 | 217 | 5.0 | 9.0 | 0.00 | 0.10 | 0.00 | 77 | 1012.3 |
| 20260507071803 | 51 | 215 | 6.0 | 11.0 | 0.00 | 0.10 | 0.00 | 77 | 1012.3 |
| 20260507071704 | 51 | 215 | 6.0 | 11.0 | 0.00 | 0.10 | 0.00 | 78 | 1012.3 |
| 20260507071603 | 51 | 215 | 6.0 | 11.0 | 0.00 | 0.10 | 0.00 | 77 | 1012.3 |
| 20260507071504 | 51 | 213 | 6.0 | 11.0 | 0.00 | 0.10 | 0.00 | 78 | 1012.3 |
| 20260507071403 | 51 | 212 | 6.0 | 11.0 | 0.00 | 0.10 | 0.00 | 79 | 1012.3 |
| 20260507071304 | 50 | 210 | 7.0 | 12.0 | 0.00 | 0.10 | 0.00 | 77 | 1012.3 |
| 20260507071203 | 51 | 210 | 6.0 | 12.0 | 0.00 | 0.10 | 0.00 | 78 | 1012.3 |
| 20260507071103 | 51 | 211 | 7.0 | 12.0 | 0.00 | 0.10 | 0.00 | 78 | 1012.3 |
| 20260507071003 | 50 | 213 | 6.0 | 12.0 | 0.00 | 0.10 | 0.00 | 79 | 1012.3 |
| 20260507070904 | 50 | 214 | 5.0 | 10.0 | 0.00 | 0.10 | 0.00 | 78 | 1012.3 |
| 20260507070803 | 50 | 214 | 6.0 | 10.0 | 0.00 | 0.10 | 0.00 | 81 | 1012.3 |
| 20260507070703 | 50 | 214 | 5.0 | 9.0 | 0.00 | 0.10 | 0.00 | 80 | 1012.3 |
| 20260507070603 | 49 | 214 | 4.0 | 9.0 | 0.00 | 0.10 | 0.00 | 79 | 1012.3 |
| 20260507070504 | 49 | 214 | 4.0 | 9.0 | 0.00 | 0.10 | 0.00 | 79 | 1012.3 |
| 20260507070404 | 49 | 217 | 5.0 | 12.0 | 0.00 | 0.10 | 0.00 | 79 | 1012.3 |
| 20260507070303 | 49 | 219 | 5.0 | 12.0 | 0.00 | 0.10 | 0.00 | 79 | 1012.3 |
| 20260507070203 | 49 | 221 | 6.0 | 12.0 | 0.00 | 0.10 | 0.00 | 79 | 1012.3 |
| 20260507070103 | 49 | 219 | 6.0 | 12.0 | 0.00 | 0.10 | 0.00 | 78 | 1012.3 |
| 20260507070004 | 50 | 215 | 6.0 | 13.0 | 0.00 | 0.10 | 0.00 | 79 | 1012.3 |
| 20260507065903 | 50 | 213 | 6.0 | 13.0 | 0.00 | 0.10 | 0.00 | 80 | 1012.3 |
| 20260507065803 | 49 | 212 | 7.0 | 13.0 | 0.00 | 0.10 | 0.00 | 79 | 1012.3 |
| 20260507065704 | 50 | 212 | 7.0 | 13.0 | 0.00 | 0.10 | 0.00 | 79 | 1012.3 |
| 20260507065603 | 50 | 212 | 6.0 | 13.0 | 0.00 | 0.10 | 0.00 | 79 | 1012.2 |
| 20260507065503 | 50 | 210 | 6.0 | 13.0 | 0.00 | 0.10 | 0.00 | 80 | 1012.2 |
| 20260507065403 | 49 | 209 | 5.0 | 11.0 | 0.00 | 0.10 | 0.00 | 79 | 1012.2 |
| 20260507065306 | 50 | 209 | 4.0 | 8.0 | 0.00 | 0.10 | 0.00 | 79 | 1012.3 |
| 20260507065203 | 50 | 210 | 4.0 | 7.0 | 0.00 | 0.10 | 0.00 | 80 | 1012.2 |
| 20260507065103 | 50 | 212 | 4.0 | 7.0 | 0.00 | 0.10 | 0.00 | 81 | 1012.2 |
| 20260507065003 | 49 | 211 | 4.0 | 7.0 | 0.00 | 0.10 | 0.00 | 81 | 1012.2 |
| 20260507064903 | 49 | 211 | 4.0 | 9.0 | 0.00 | 0.10 | 0.00 | 82 | 1012.2 |
| 20260507064803 | 49 | 211 | 4.0 | 9.0 | 0.00 | 0.10 | 0.00 | 82 | 1012.2 |
| 20260507064703 | 49 | 212 | 4.0 | 9.0 | 0.00 | 0.10 | 0.00 | 82 | 1012.2 |
| 20260507064603 | 49 | 213 | 4.0 | 9.0 | 0.00 | 0.10 | 0.00 | 82 | 1012.2 |
| 20260507064510 | 48 | 212 | 5.0 | 9.0 | 0.00 | 0.10 | 0.00 | 83 | 1012.2 |
| 20260507064404 | 48 | 210 | 6.0 | 10.0 | 0.00 | 0.10 | 0.00 | 83 | 1012.2 |
| 20260507064304 | 48 | 207 | 6.0 | 12.0 | 0.00 | 0.10 | 0.00 | 82 | 1012.3 |
| 20260507064203 | 48 | 204 | 6.0 | 12.0 | 0.00 | 0.10 | 0.00 | 83 | 1012.3 |
| 20260507064103 | 48 | 203 | 6.0 | 12.0 | 0.00 | 0.10 | 0.00 | 83 | 1012.3 |
| 20260507064003 | 48 | 205 | 5.0 | 12.0 | 0.00 | 0.10 | 0.00 | 83 | 1012.3 |
| 20260507063904 | 48 | 209 | 5.0 | 10.0 | 0.00 | 0.10 | 0.00 | 84 | 1012.3 |
| 20260507063803 | 48 | 211 | 5.0 | 10.0 | 0.00 | 0.10 | 0.00 | 83 | 1012.3 |
| 20260507063703 | 48 | 213 | 4.0 | 9.0 | 0.00 | 0.10 | 0.00 | 83 | 1012.3 |
| 20260507063603 | 48 | 212 | 5.0 | 9.0 | 0.00 | 0.10 | 0.00 | 84 | 1012.3 |
| 20260507063504 | 48 | 211 | 4.0 | 9.0 | 0.00 | 0.10 | 0.00 | 84 | 1012.3 |
| 20260507063403 | 48 | 210 | 4.0 | 7.0 | 0.00 | 0.10 | 0.00 | 83 | 1012.3 |
| 20260507063303 | 48 | 210 | 4.0 | 8.0 | 0.00 | 0.10 | 0.00 | 83 | 1012.2 |
| 20260507063203 | 48 | 211 | 4.0 | 9.0 | 0.00 | 0.10 | 0.00 | 83 | 1012.2 |
| 20260507063103 | 48 | 212 | 4.0 | 9.0 | 0.00 | 0.10 | 0.00 | 84 | 1012.2 |
| 20260507063003 | 48 | 213 | 4.0 | 9.0 | 0.00 | 0.10 | 0.00 | 84 | 1012.2 |
| 20260507062903 | 48 | 215 | 4.0 | 9.0 | 0.00 | 0.10 | 0.00 | 84 | 1012.2 |
| 20260507062803 | 48 | 217 | 4.0 | 8.0 | 0.00 | 0.10 | 0.00 | 84 | 1012.2 |
| 20260507062704 | 48 | 217 | 4.0 | 8.0 | 0.00 | 0.10 | 0.00 | 85 | 1012.2 |
| 20260507062603 | 48 | 216 | 4.0 | 8.0 | 0.00 | 0.10 | 0.00 | 84 | 1012.1 |
| 20260507062503 | 48 | 214 | 4.0 | 8.0 | 0.00 | 0.10 | 0.00 | 84 | 1012.1 |
| 20260507062403 | 48 | 210 | 4.0 | 6.0 | 0.00 | 0.10 | 0.00 | 85 | 1012.1 |
| 20260507062305 | 48 | 208 | 3.0 | 6.0 | 0.00 | 0.10 | 0.00 | 86 | 1012.1 |
| 20260507062203 | 48 | 206 | 2.0 | 6.0 | 0.00 | 0.10 | 0.00 | 84 | 1012.1 |
| 20260507062103 | 48 | 204 | 2.0 | 6.0 | 0.00 | 0.10 | 0.00 | 84 | 1012.1 |
| 20260507062004 | 48 | 203 | 1.0 | 3.0 | 0.00 | 0.10 | 0.00 | 85 | 1012.1 |
| 20260507061903 | 48 | 199 | 2.0 | 4.0 | 0.00 | 0.10 | 0.00 | 84 | 1012.1 |
| 20260507061803 | 48 | 197 | 3.0 | 6.0 | 0.00 | 0.10 | 0.00 | 84 | 1012.1 |
| 20260507061703 | 48 | 197 | 3.0 | 6.0 | 0.00 | 0.10 | 0.00 | 85 | 1012.1 |
| 20260507061604 | 48 | 197 | 2.0 | 6.0 | 0.00 | 0.10 | 0.00 | 85 | 1012.1 |
| 20260507061503 | 48 | 202 | 2.0 | 6.0 | 0.00 | 0.10 | 0.00 | 86 | 1011.9 |
| 20260507061403 | 48 | 209 | 2.0 | 4.0 | 0.00 | 0.10 | 0.00 | 85 | 1011.9 |
| 20260507061303 | 48 | 212 | 2.0 | 5.0 | 0.00 | 0.10 | 0.00 | 86 | 1012.1 |
| 20260507061204 | 47 | 211 | 3.0 | 5.0 | 0.00 | 0.10 | 0.00 | 86 | 1012.1 |
| 20260507061103 | 47 | 210 | 3.0 | 5.0 | 0.00 | 0.10 | 0.00 | 85 | 1012.1 |
| 20260507061003 | 47 | 208 | 3.0 | 5.0 | 0.00 | 0.10 | 0.00 | 86 | 1012.1 |
| 20260507060903 | 47 | 207 | 2.0 | 5.0 | 0.00 | 0.10 | 0.00 | 86 | 1012.1 |
| 20260507060804 | 47 | 206 | 2.0 | 5.0 | 0.00 | 0.10 | 0.00 | 86 | 1012.1 |
| 20260507060703 | 47 | 205 | 2.0 | 5.0 | 0.00 | 0.10 | 0.00 | 86 | 1012.1 |
| 20260507060603 | 47 | 204 | 2.0 | 5.0 | 0.00 | 0.10 | 0.00 | 86 | 1012.1 |
| 20260507060503 | 47 | 202 | 1.0 | 3.0 | 0.00 | 0.10 | 0.00 | 86 | 1012.1 |
| 20260507060404 | 47 | 201 | 2.0 | 3.0 | 0.00 | 0.10 | 0.00 | 86 | 1011.9 |
| 20260507060303 | 47 | 202 | 2.0 | 6.0 | 0.00 | 0.10 | 0.00 | 87 | 1011.9 |
| 20260507060203 | 47 | 201 | 2.0 | 6.0 | 0.00 | 0.10 | 0.00 | 86 | 1011.9 |
| 20260507060103 | 47 | 201 | 3.0 | 12.0 | 0.00 | 0.10 | 0.00 | 86 | 1011.9 |
| 20260507060004 | 47 | 203 | 4.0 | 12.0 | 0.00 | 0.10 | 0.00 | 86 | 1011.9 |
| 20260507055904 | 47 | 205 | 4.0 | 12.0 | 0.00 | 0.10 | 0.00 | 85 | 1011.9 |
| 20260507055804 | 47 | 205 | 4.0 | 12.0 | 0.00 | 0.10 | 0.00 | 86 | 1011.9 |
| 20260507055703 | 47 | 207 | 3.0 | 10.0 | 0.00 | 0.10 | 0.00 | 85 | 1011.9 |
| 20260507055603 | 47 | 205 | 3.0 | 10.0 | 0.00 | 0.10 | 0.00 | 85 | 1011.8 |
| 20260507055503 | 47 | 205 | 2.0 | 9.0 | 0.00 | 0.10 | 0.00 | 87 | 1011.8 |
| 20260507055404 | 47 | 204 | 3.0 | 9.0 | 0.00 | 0.10 | 0.00 | 87 | 1011.8 |
| 20260507055305 | 47 | 204 | 4.0 | 9.0 | 0.00 | 0.10 | 0.00 | 86 | 1011.8 |
| 20260507055203 | 47 | 202 | 4.0 | 9.0 | 0.00 | 0.10 | 0.00 | 86 | 1011.8 |
| 20260507055103 | 47 | 200 | 5.0 | 10.0 | 0.00 | 0.10 | 0.00 | 85 | 1011.8 |
| 20260507055004 | 47 | 199 | 5.0 | 10.0 | 0.00 | 0.10 | 0.00 | 86 | 1011.8 |
| 20260507054903 | 47 | 200 | 6.0 | 10.0 | 0.00 | 0.10 | 0.00 | 86 | 1011.8 |
| 20260507054803 | 47 | 201 | 5.0 | 10.0 | 0.00 | 0.10 | 0.00 | 86 | 1011.8 |
| 20260507054703 | 47 | 203 | 5.0 | 9.0 | 0.00 | 0.10 | 0.00 | 86 | 1011.8 |
| 20260507054603 | 47 | 205 | 5.0 | 9.0 | 0.00 | 0.10 | 0.00 | 86 | 1011.8 |
| 20260507054503 | 47 | 207 | 4.0 | 9.0 | 0.00 | 0.10 | 0.00 | 86 | 1011.8 |
| 20260507054403 | 47 | 208 | 4.0 | 9.0 | 0.00 | 0.10 | 0.00 | 86 | 1011.8 |
| 20260507054304 | 47 | 209 | 3.0 | 9.0 | 0.00 | 0.10 | 0.00 | 87 | 1011.8 |
| 20260507054203 | 47 | 207 | 3.0 | 8.0 | 0.00 | 0.10 | 0.00 | 87 | 1011.8 |
| 20260507054103 | 47 | 206 | 3.0 | 8.0 | 0.00 | 0.10 | 0.00 | 87 | 1011.7 |
| 20260507054003 | 47 | 205 | 3.0 | 6.0 | 0.00 | 0.10 | 0.00 | 87 | 1011.7 |
| 20260507053903 | 47 | 205 | 4.0 | 6.0 | 0.00 | 0.10 | 0.00 | 87 | 1011.8 |
| 20260507053803 | 47 | 206 | 4.0 | 6.0 | 0.00 | 0.10 | 0.00 | 87 | 1011.8 |
| 20260507053703 | 47 | 208 | 4.0 | 6.0 | 0.00 | 0.10 | 0.00 | 87 | 1011.7 |
| 20260507053604 | 47 | 210 | 4.0 | 6.0 | 0.00 | 0.10 | 0.00 | 87 | 1011.7 |
| 20260507053503 | 47 | 212 | 4.0 | 6.0 | 0.00 | 0.10 | 0.00 | 87 | 1011.7 |
| 20260507053403 | 47 | 214 | 3.0 | 8.0 | 0.00 | 0.10 | 0.00 | 87 | 1011.7 |
| 20260507053303 | 47 | 215 | 3.0 | 8.0 | 0.00 | 0.10 | 0.00 | 87 | 1011.7 |
| 20260507053203 | 47 | 215 | 3.0 | 9.0 | 0.00 | 0.10 | 0.00 | 87 | 1011.7 |
| 20260507053103 | 47 | 214 | 4.0 | 9.0 | 0.00 | 0.10 | 0.00 | 87 | 1011.7 |
| 20260507053004 | 47 | 213 | 5.0 | 10.0 | 0.00 | 0.10 | 0.00 | 87 | 1011.7 |
| 20260507052904 | 47 | 213 | 5.0 | 10.0 | 0.00 | 0.10 | 0.00 | 87 | 1011.7 |
| 20260507052803 | 47 | 213 | 5.0 | 10.0 | 0.00 | 0.10 | 0.00 | 87 | 1011.7 |
| 20260507052703 | 47 | 213 | 4.0 | 10.0 | 0.00 | 0.10 | 0.00 | 87 | 1011.7 |
| 20260507052603 | 47 | 214 | 4.0 | 7.0 | 0.00 | 0.10 | 0.00 | 87 | 1011.7 |
| 20260507052503 | 47 | 213 | 4.0 | 8.0 | 0.00 | 0.10 | 0.00 | 87 | 1011.7 |
| 20260507052404 | 47 | 210 | 4.0 | 12.0 | 0.00 | 0.10 | 0.00 | 87 | 1011.6 |
| 20260507052306 | 47 | 207 | 4.0 | 12.0 | 0.00 | 0.10 | 0.00 | 87 | 1011.7 |
| 20260507052203 | 47 | 204 | 5.0 | 12.0 | 0.00 | 0.10 | 0.00 | 86 | 1011.6 |
| 20260507052103 | 47 | 203 | 5.0 | 12.0 | 0.00 | 0.10 | 0.00 | 86 | 1011.6 |
| 20260507052003 | 47 | 201 | 4.0 | 9.0 | 0.00 | 0.10 | 0.00 | 87 | 1011.6 |
| 20260507051903 | 47 | 203 | 4.0 | 11.0 | 0.00 | 0.10 | 0.00 | 87 | 1011.6 |
| 20260507051803 | 47 | 205 | 5.0 | 11.0 | 0.00 | 0.10 | 0.00 | 86 | 1011.6 |
| 20260507051704 | 47 | 205 | 5.0 | 11.0 | 0.00 | 0.10 | 0.00 | 86 | 1011.6 |
| 20260507051603 | 47 | 205 | 5.0 | 11.0 | 0.00 | 0.10 | 0.00 | 86 | 1011.6 |
| 20260507051503 | 47 | 202 | 5.0 | 11.0 | 0.00 | 0.10 | 0.00 | 86 | 1011.6 |
| 20260507051403 | 47 | 200 | 4.0 | 9.0 | 0.00 | 0.10 | 0.00 | 86 | 1011.6 |
| 20260507051304 | 47 | 199 | 4.0 | 9.0 | 0.00 | 0.10 | 0.00 | 87 | 1011.5 |
| 20260507051203 | 47 | 198 | 3.0 | 9.0 | 0.00 | 0.10 | 0.00 | 87 | 1011.5 |
| 20260507051103 | 47 | 197 | 3.0 | 9.0 | 0.00 | 0.10 | 0.00 | 87 | 1011.5 |
| 20260507051003 | 47 | 196 | 4.0 | 12.0 | 0.00 | 0.10 | 0.00 | 87 | 1011.5 |
| 20260507050903 | 47 | 197 | 4.0 | 12.0 | 0.00 | 0.10 | 0.00 | 87 | 1011.4 |
| 20260507050803 | 47 | 197 | 4.0 | 12.0 | 0.00 | 0.10 | 0.00 | 87 | 1011.4 |
| 20260507050703 | 47 | 199 | 4.0 | 12.0 | 0.00 | 0.10 | 0.00 | 87 | 1011.4 |
| 20260507050603 | 47 | 203 | 4.0 | 8.0 | 0.00 | 0.10 | 0.00 | 87 | 1011.4 |
| 20260507050504 | 47 | 203 | 5.0 | 10.0 | 0.00 | 0.10 | 0.00 | 87 | 1011.4 |
| 20260507050403 | 47 | 202 | 6.0 | 11.0 | 0.00 | 0.10 | 0.00 | 87 | 1011.4 |
| 20260507050303 | 47 | 202 | 6.0 | 11.0 | 0.00 | 0.10 | 0.00 | 87 | 1011.4 |
| 20260507050203 | 47 | 200 | 6.0 | 11.0 | 0.00 | 0.10 | 0.00 | 87 | 1011.3 |
| 20260507050103 | 47 | 199 | 6.0 | 11.0 | 0.00 | 0.10 | 0.00 | 87 | 1011.3 |
| 20260507050003 | 47 | 198 | 6.0 | 11.0 | 0.00 | 0.10 | 0.00 | 87 | 1011.2 |
| 20260507045903 | 47 | 197 | 6.0 | 11.0 | 0.00 | 0.10 | 0.00 | 87 | 1011.2 |
| 20260507045803 | 47 | 198 | 5.0 | 11.0 | 0.00 | 0.10 | 0.00 | 88 | 1011.2 |
| 20260507045704 | 47 | 200 | 5.0 | 11.0 | 0.00 | 0.10 | 0.00 | 87 | 1011.2 |
| 20260507045603 | 47 | 201 | 5.0 | 11.0 | 0.00 | 0.10 | 0.00 | 88 | 1011.2 |
| 20260507045503 | 47 | 201 | 5.0 | 11.0 | 0.00 | 0.10 | 0.00 | 88 | 1011.2 |
| 20260507045403 | 47 | 201 | 5.0 | 11.0 | 0.00 | 0.10 | 0.00 | 88 | 1011.2 |
| 20260507045306 | 47 | 200 | 5.0 | 9.0 | 0.00 | 0.10 | 0.00 | 88 | 1011.2 |
| 20260507045203 | 47 | 199 | 5.0 | 9.0 | 0.00 | 0.10 | 0.00 | 87 | 1011.2 |
| 20260507045103 | 47 | 196 | 4.0 | 8.0 | 0.00 | 0.10 | 0.00 | 88 | 1011.2 |
| 20260507045003 | 47 | 194 | 5.0 | 7.0 | 0.00 | 0.10 | 0.00 | 88 | 1011.1 |
| 20260507044904 | 47 | 192 | 4.0 | 7.0 | 0.00 | 0.10 | 0.00 | 88 | 1011.1 |
| 20260507044803 | 47 | 190 | 3.0 | 7.0 | 0.00 | 0.10 | 0.00 | 88 | 1011.1 |
| 20260507044703 | 47 | 188 | 3.0 | 7.0 | 0.00 | 0.10 | 0.00 | 88 | 1011.1 |
| 20260507044603 | 47 | 186 | 3.0 | 6.0 | 0.00 | 0.10 | 0.00 | 88 | 1011.1 |
| 20260507044504 | 47 | 185 | 2.0 | 6.0 | 0.00 | 0.10 | 0.00 | 89 | 1011.0 |
| 20260507044403 | 47 | 185 | 2.0 | 6.0 | 0.00 | 0.10 | 0.00 | 90 | 1011.0 |
| 20260507044303 | 47 | 189 | 2.0 | 6.0 | 0.00 | 0.10 | 0.00 | 89 | 1011.0 |
| 20260507044203 | 47 | 192 | 3.0 | 10.0 | 0.00 | 0.10 | 0.00 | 89 | 1011.0 |
| 20260507044104 | 47 | 193 | 4.0 | 10.0 | 0.00 | 0.10 | 0.00 | 89 | 1011.0 |
| 20260507044004 | 47 | 194 | 4.0 | 10.0 | 0.00 | 0.10 | 0.00 | 89 | 1011.0 |
| 20260507043903 | 47 | 194 | 4.0 | 10.0 | 0.00 | 0.10 | 0.00 | 89 | 1011.0 |
| 20260507043803 | 47 | 192 | 4.0 | 6.0 | 0.00 | 0.10 | 0.00 | 88 | 1011.0 |
| 20260507043703 | 47 | 190 | 3.0 | 6.0 | 0.00 | 0.10 | 0.00 | 89 | 1011.0 |
| 20260507043603 | 47 | 187 | 4.0 | 8.0 | 0.00 | 0.10 | 0.00 | 89 | 1010.9 |
| 20260507043503 | 47 | 185 | 4.0 | 8.0 | 0.00 | 0.10 | 0.00 | 89 | 1010.9 |
| 20260507043403 | 47 | 183 | 4.0 | 8.0 | 0.00 | 0.10 | 0.00 | 89 | 1010.9 |
| 20260507043303 | 47 | 182 | 4.0 | 8.0 | 0.00 | 0.10 | 0.00 | 89 | 1010.9 |
| 20260507043203 | 47 | 183 | 4.0 | 7.0 | 0.00 | 0.10 | 0.00 | 89 | 1010.9 |
| 20260507043103 | 47 | 184 | 4.0 | 7.0 | 0.00 | 0.10 | 0.00 | 89 | 1010.9 |
| 20260507043003 | 47 | 186 | 4.0 | 6.0 | 0.00 | 0.10 | 0.00 | 89 | 1010.9 |
| 20260507042903 | 47 | 189 | 3.0 | 6.0 | 0.00 | 0.10 | 0.00 | 89 | 1010.8 |
| 20260507042804 | 47 | 191 | 3.0 | 6.0 | 0.00 | 0.10 | 0.00 | 89 | 1010.8 |
| 20260507042704 | 47 | 193 | 4.0 | 6.0 | 0.00 | 0.10 | 0.00 | 89 | 1010.8 |
| 20260507042603 | 47 | 197 | 3.0 | 9.0 | 0.00 | 0.10 | 0.00 | 89 | 1010.8 |
| 20260507042503 | 47 | 200 | 4.0 | 9.0 | 0.00 | 0.10 | 0.00 | 88 | 1010.8 |
| 20260507042403 | 47 | 201 | 4.0 | 9.0 | 0.00 | 0.10 | 0.00 | 88 | 1010.8 |
| 20260507042306 | 47 | 202 | 3.0 | 9.0 | 0.00 | 0.10 | 0.00 | 88 | 1010.8 |
| 20260507042203 | 47 | 203 | 3.0 | 8.0 | 0.00 | 0.10 | 0.00 | 88 | 1010.8 |
| 20260507042103 | 47 | 201 | 3.0 | 7.0 | 0.00 | 0.10 | 0.00 | 88 | 1010.9 |
| 20260507042004 | 47 | 200 | 3.0 | 8.0 | 0.00 | 0.10 | 0.00 | 88 | 1010.9 |
| 20260507041903 | 47 | 197 | 4.0 | 10.0 | 0.00 | 0.10 | 0.00 | 88 | 1010.9 |
| 20260507041803 | 47 | 197 | 5.0 | 10.0 | 0.00 | 0.10 | 0.00 | 88 | 1010.9 |
| 20260507041703 | 47 | 198 | 5.0 | 10.0 | 0.00 | 0.10 | 0.00 | 88 | 1010.9 |
| 20260507041604 | 47 | 201 | 5.0 | 10.0 | 0.00 | 0.10 | 0.00 | 88 | 1010.9 |
| 20260507041503 | 47 | 206 | 4.0 | 9.0 | 0.00 | 0.10 | 0.00 | 89 | 1010.9 |
| 20260507041403 | 47 | 213 | 3.0 | 9.0 | 0.00 | 0.10 | 0.00 | 88 | 1010.9 |
| 20260507041303 | 47 | 217 | 4.0 | 9.0 | 0.00 | 0.10 | 0.00 | 89 | 1010.9 |
| 20260507041203 | 47 | 217 | 4.0 | 9.0 | 0.00 | 0.10 | 0.00 | 89 | 1010.9 |
| 20260507041103 | 47 | 217 | 4.0 | 9.0 | 0.00 | 0.10 | 0.00 | 89 | 1010.9 |
| 20260507041003 | 47 | 215 | 4.0 | 9.0 | 0.00 | 0.10 | 0.00 | 89 | 1010.9 |
| 20260507040903 | 47 | 212 | 3.0 | 9.0 | 0.00 | 0.10 | 0.00 | 88 | 1010.9 |
| 20260507040803 | 47 | 206 | 3.0 | 6.0 | 0.00 | 0.10 | 0.00 | 89 | 1010.9 |
| 20260507040703 | 47 | 202 | 3.0 | 7.0 | 0.00 | 0.10 | 0.00 | 89 | 1010.9 |
| 20260507040603 | 47 | 201 | 4.0 | 7.0 | 0.00 | 0.10 | 0.00 | 90 | 1010.9 |
| 20260507040504 | 47 | 199 | 4.0 | 7.0 | 0.00 | 0.10 | 0.00 | 89 | 1010.9 |
| 20260507040404 | 47 | 199 | 3.0 | 7.0 | 0.00 | 0.10 | 0.00 | 89 | 1010.9 |
| 20260507040303 | 47 | 203 | 2.0 | 6.0 | 0.00 | 0.10 | 0.00 | 89 | 1010.8 |
| 20260507040203 | 47 | 206 | 2.0 | 5.0 | 0.00 | 0.10 | 0.00 | 90 | 1010.8 |
| 20260507040103 | 47 | 209 | 2.0 | 4.0 | 0.00 | 0.10 | 0.00 | 89 | 1010.8 |
| 20260507040003 | 47 | 209 | 2.0 | 5.0 | 0.00 | 0.10 | 0.00 | 89 | 1010.8 |
| 20260507035903 | 47 | 205 | 2.0 | 8.0 | 0.00 | 0.10 | 0.00 | 90 | 1010.8 |
| 20260507035803 | 47 | 204 | 3.0 | 8.0 | 0.00 | 0.10 | 0.00 | 89 | 1010.8 |
| 20260507035703 | 47 | 202 | 3.0 | 8.0 | 0.00 | 0.10 | 0.00 | 89 | 1010.8 |
| 20260507035603 | 47 | 200 | 3.0 | 8.0 | 0.00 | 0.10 | 0.00 | 89 | 1010.8 |
| 20260507035503 | 47 | 199 | 3.0 | 8.0 | 0.00 | 0.10 | 0.00 | 89 | 1010.8 |
| 20260507035403 | 47 | 198 | 2.0 | 5.0 | 0.00 | 0.10 | 0.00 | 89 | 1010.8 |
| 20260507035306 | 47 | 200 | 2.0 | 5.0 | 0.00 | 0.10 | 0.00 | 89 | 1010.8 |
| 20260507035203 | 47 | 204 | 3.0 | 7.0 | 0.00 | 0.10 | 0.00 | 89 | 1010.8 |
| 20260507035103 | 47 | 206 | 4.0 | 7.0 | 0.00 | 0.10 | 0.00 | 89 | 1010.8 |
| 20260507035004 | 47 | 206 | 4.0 | 7.0 | 0.00 | 0.10 | 0.00 | 89 | 1010.7 |
| 20260507034903 | 47 | 206 | 4.0 | 7.0 | 0.00 | 0.10 | 0.00 | 89 | 1010.8 |
| 20260507034803 | 47 | 205 | 2.0 | 7.0 | 0.00 | 0.10 | 0.00 | 89 | 1010.8 |
| 20260507034703 | 47 | 204 | 1.0 | 5.0 | 0.00 | 0.10 | 0.00 | 89 | 1010.8 |
| 20260507034603 | 47 | 202 | 1.0 | 3.0 | 0.00 | 0.10 | 0.00 | 89 | 1010.7 |
| 20260507034504 | 47 | 200 | 1.0 | 4.0 | 0.00 | 0.10 | 0.00 | 89 | 1010.7 |
| 20260507034404 | 47 | 201 | 2.0 | 4.0 | 0.00 | 0.10 | 0.00 | 89 | 1010.7 |
| 20260507034303 | 47 | 201 | 2.0 | 5.0 | 0.00 | 0.10 | 0.00 | 89 | 1010.7 |
| 20260507034203 | 47 | 201 | 2.0 | 5.0 | 0.00 | 0.10 | 0.00 | 89 | 1010.7 |
| 20260507034103 | 47 | 200 | 3.0 | 6.0 | 0.00 | 0.10 | 0.00 | 89 | 1010.7 |
| 20260507034003 | 47 | 199 | 2.0 | 6.0 | 0.00 | 0.10 | 0.00 | 89 | 1010.7 |
| 20260507033903 | 47 | 197 | 2.0 | 6.0 | 0.00 | 0.10 | 0.00 | 90 | 1010.7 |
| 20260507033804 | 47 | 195 | 2.0 | 6.0 | 0.00 | 0.10 | 0.00 | 90 | 1010.7 |
| 20260507033704 | 47 | 192 | 2.0 | 3.0 | 0.00 | 0.10 | 0.00 | 90 | 1010.7 |
| 20260507033603 | 47 | 192 | 2.0 | 3.0 | 0.00 | 0.10 | 0.00 | 90 | 1010.7 |
| 20260507033503 | 47 | 194 | 2.0 | 4.0 | 0.00 | 0.10 | 0.00 | 90 | 1010.7 |
| 20260507033404 | 47 | 195 | 2.0 | 4.0 | 0.00 | 0.10 | 0.00 | 90 | 1010.7 |
| 20260507033303 | 47 | 196 | 2.0 | 4.0 | 0.00 | 0.10 | 0.00 | 90 | 1010.7 |
| 20260507033203 | 47 | 195 | 2.0 | 4.0 | 0.00 | 0.10 | 0.00 | 90 | 1010.7 |
| 20260507033103 | 47 | 195 | 2.0 | 3.0 | 0.00 | 0.10 | 0.00 | 90 | 1010.7 |
| 20260507033003 | 47 | 196 | 2.0 | 5.0 | 0.00 | 0.10 | 0.00 | 90 | 1010.7 |
| 20260507032903 | 47 | 199 | 3.0 | 5.0 | 0.00 | 0.10 | 0.00 | 90 | 1010.7 |
| 20260507032803 | 47 | 203 | 3.0 | 8.0 | 0.00 | 0.10 | 0.00 | 90 | 1010.7 |
| 20260507032703 | 47 | 205 | 4.0 | 8.0 | 0.00 | 0.10 | 0.00 | 90 | 1010.7 |
| 20260507032604 | 47 | 206 | 4.0 | 8.0 | 0.00 | 0.10 | 0.00 | 90 | 1010.7 |
| 20260507032504 | 47 | 205 | 4.0 | 8.0 | 0.00 | 0.10 | 0.00 | 90 | 1010.7 |
| 20260507032403 | 47 | 204 | 4.0 | 7.0 | 0.00 | 0.10 | 0.00 | 90 | 1010.7 |
| 20260507032305 | 47 | 203 | 3.0 | 7.0 | 0.00 | 0.10 | 0.00 | 90 | 1010.7 |
| 20260507032203 | 47 | 202 | 3.0 | 7.0 | 0.00 | 0.10 | 0.00 | 91 | 1010.7 |
| 20260507032104 | 47 | 202 | 2.0 | 6.0 | 0.00 | 0.10 | 0.00 | 91 | 1010.7 |
| 20260507032004 | 47 | 201 | 1.0 | 3.0 | 0.00 | 0.10 | 0.00 | 91 | 1010.7 |
| 20260507031903 | 47 | 195 | 2.0 | 4.0 | 0.00 | 0.10 | 0.00 | 91 | 1010.7 |
| 20260507031803 | 47 | 192 | 2.0 | 7.0 | 0.00 | 0.10 | 0.00 | 90 | 1010.7 |
| 20260507031703 | 47 | 189 | 3.0 | 8.0 | 0.00 | 0.10 | 0.00 | 90 | 1010.7 |
| 20260507031604 | 47 | 188 | 4.0 | 8.0 | 0.00 | 0.10 | 0.00 | 90 | 1010.7 |
| 20260507031503 | 47 | 188 | 4.0 | 8.0 | 0.00 | 0.10 | 0.00 | 90 | 1010.7 |
| 20260507031403 | 47 | 189 | 5.0 | 8.0 | 0.00 | 0.10 | 0.00 | 90 | 1010.7 |
| 20260507031304 | 47 | 193 | 5.0 | 11.0 | 0.00 | 0.10 | 0.00 | 90 | 1010.7 |
| 20260507031203 | 47 | 195 | 5.0 | 11.0 | 0.00 | 0.10 | 0.00 | 90 | 1010.7 |
| 20260507031103 | 47 | 196 | 4.0 | 11.0 | 0.00 | 0.10 | 0.00 | 90 | 1010.7 |
| 20260507031003 | 47 | 196 | 4.0 | 11.0 | 0.00 | 0.10 | 0.00 | 90 | 1010.7 |
| 20260507030903 | 47 | 196 | 4.0 | 7.0 | 0.00 | 0.10 | 0.00 | 90 | 1010.7 |
| 20260507030804 | 47 | 196 | 3.0 | 6.0 | 0.00 | 0.10 | 0.00 | 90 | 1010.7 |
| 20260507030704 | 47 | 198 | 3.0 | 7.0 | 0.00 | 0.10 | 0.00 | 90 | 1010.7 |
| 20260507030603 | 47 | 198 | 4.0 | 7.0 | 0.00 | 0.10 | 0.00 | 90 | 1010.7 |
| 20260507030503 | 47 | 197 | 3.0 | 7.0 | 0.00 | 0.10 | 0.00 | 90 | 1010.7 |
| 20260507030304 | 47 | 194 | 3.0 | 7.0 | 0.00 | 0.10 | 0.00 | 90 | 1010.6 |
| 20260507030203 | 47 | 191 | 4.0 | 10.0 | 0.00 | 0.10 | 0.00 | 91 | 1010.6 |
| 20260507030004 | 47 | 189 | 6.0 | 10.0 | 0.00 | 0.10 | 0.00 | 91 | 1010.6 |
| 20260507025903 | 47 | 189 | 5.0 | 10.0 | 0.00 | 0.10 | 0.00 | 90 | 1010.6 |
| 20260507025803 | 47 | 190 | 4.0 | 9.0 | 0.00 | 0.10 | 0.00 | 90 | 1010.4 |
| 20260507025703 | 47 | 191 | 4.0 | 9.0 | 0.00 | 0.10 | 0.00 | 90 | 1010.4 |
| 20260507025603 | 47 | 192 | 4.0 | 6.0 | 0.00 | 0.10 | 0.00 | 91 | 1010.4 |
| 20260507025504 | 47 | 191 | 4.0 | 7.0 | 0.00 | 0.10 | 0.00 | 90 | 1010.4 |
| 20260507025403 | 47 | 192 | 4.0 | 8.0 | 0.00 | 0.10 | 0.00 | 90 | 1010.4 |
| 20260507025306 | 47 | 192 | 4.0 | 8.0 | 0.00 | 0.10 | 0.00 | 89 | 1010.4 |
| 20260507025203 | 47 | 194 | 4.0 | 9.0 | 0.00 | 0.10 | 0.00 | 90 | 1010.4 |
| 20260507025103 | 47 | 196 | 4.0 | 9.0 | 0.00 | 0.10 | 0.00 | 91 | 1010.4 |
| 20260507025003 | 47 | 197 | 4.0 | 9.0 | 0.00 | 0.10 | 0.00 | 91 | 1010.4 |
| 20260507024903 | 47 | 197 | 4.0 | 9.0 | 0.00 | 0.10 | 0.00 | 90 | 1010.4 |
| 20260507024804 | 47 | 196 | 4.0 | 8.0 | 0.00 | 0.10 | 0.00 | 90 | 1010.4 |
| 20260507024703 | 47 | 195 | 3.0 | 9.0 | 0.00 | 0.10 | 0.00 | 90 | 1010.3 |
| 20260507024603 | 47 | 193 | 4.0 | 9.0 | 0.00 | 0.10 | 0.00 | 90 | 1010.3 |
| 20260507024503 | 47 | 190 | 4.0 | 9.0 | 0.00 | 0.10 | 0.00 | 90 | 1010.3 |
| 20260507024403 | 48 | 188 | 4.0 | 9.0 | 0.00 | 0.10 | 0.00 | 90 | 1010.3 |
| 20260507024303 | 48 | 187 | 4.0 | 8.0 | 0.00 | 0.10 | 0.00 | 91 | 1010.3 |
| 20260507024203 | 48 | 186 | 4.0 | 7.0 | 0.00 | 0.10 | 0.00 | 91 | 1010.3 |
| 20260507024103 | 48 | 187 | 4.0 | 8.0 | 0.00 | 0.10 | 0.00 | 91 | 1010.3 |
| 20260507024003 | 48 | 189 | 4.0 | 8.0 | 0.00 | 0.10 | 0.00 | 90 | 1010.3 |
| 20260507023904 | 48 | 191 | 4.0 | 8.0 | 0.00 | 0.10 | 0.00 | 90 | 1010.3 |
| 20260507023703 | 48 | 195 | 4.0 | 8.0 | 0.00 | 0.10 | 0.00 | 90 | 1010.3 |
| 20260507023603 | 48 | 194 | 4.0 | 8.0 | 0.00 | 0.10 | 0.00 | 90 | 1010.3 |
| 20260507023504 | 48 | 192 | 4.0 | 8.0 | 0.00 | 0.10 | 0.00 | 89 | 1010.3 |
| 20260507023403 | 48 | 190 | 5.0 | 9.0 | 0.00 | 0.10 | 0.00 | 89 | 1010.3 |
| 20260507023303 | 48 | 190 | 5.0 | 9.0 | 0.00 | 0.10 | 0.00 | 90 | 1010.3 |
| 20260507023203 | 48 | 190 | 4.0 | 9.0 | 0.00 | 0.10 | 0.00 | 90 | 1010.3 |
| 20260507023104 | 48 | 191 | 4.0 | 9.0 | 0.00 | 0.10 | 0.00 | 90 | 1010.3 |
| 20260507023003 | 48 | 191 | 3.0 | 7.0 | 0.00 | 0.10 | 0.00 | 91 | 1010.3 |
| 20260507022904 | 48 | 191 | 3.0 | 7.0 | 0.00 | 0.10 | 0.00 | 91 | 1010.3 |
| 20260507022804 | 48 | 190 | 4.0 | 8.0 | 0.00 | 0.10 | 0.00 | 90 | 1010.3 |
| 20260507022703 | 48 | 189 | 4.0 | 8.0 | 0.00 | 0.10 | 0.00 | 90 | 1010.3 |
| 20260507022604 | 48 | 186 | 4.0 | 8.0 | 0.00 | 0.10 | 0.00 | 90 | 1010.3 |
| 20260507022403 | 48 | 183 | 4.0 | 8.0 | 0.00 | 0.10 | 0.00 | 90 | 1010.2 |
| 20260507022306 | 48 | 184 | 4.0 | 8.0 | 0.00 | 0.10 | 0.00 | 90 | 1010.2 |
| 20260507022203 | 48 | 187 | 3.0 | 7.0 | 0.00 | 0.10 | 0.00 | 91 | 1010.2 |
| 20260507022104 | 48 | 189 | 3.0 | 6.0 | 0.00 | 0.10 | 0.00 | 91 | 1010.2 |
| 20260507022003 | 48 | 189 | 3.0 | 8.0 | 0.00 | 0.10 | 0.00 | 91 | 1010.2 |
| 20260507021904 | 48 | 191 | 3.0 | 8.0 | 0.00 | 0.10 | 0.00 | 91 | 1010.2 |
| 20260507021804 | 48 | 191 | 3.0 | 8.0 | 0.00 | 0.10 | 0.00 | 91 | 1010.2 |
| 20260507021703 | 48 | 194 | 3.0 | 8.0 | 0.00 | 0.10 | 0.00 | 91 | 1010.2 |
| 20260507021603 | 48 | 195 | 3.0 | 8.0 | 0.00 | 0.10 | 0.00 | 90 | 1010.2 |
| 20260507021503 | 48 | 195 | 3.0 | 8.0 | 0.00 | 0.10 | 0.00 | 90 | 1010.2 |
| 20260507021404 | 48 | 195 | 3.0 | 8.0 | 0.00 | 0.10 | 0.00 | 90 | 1010.2 |
| 20260507021303 | 48 | 193 | 4.0 | 7.0 | 0.00 | 0.10 | 0.00 | 90 | 1010.2 |
| 20260507021203 | 48 | 190 | 4.0 | 12.0 | 0.00 | 0.10 | 0.00 | 90 | 1010.2 |
| 20260507021103 | 48 | 189 | 4.0 | 12.0 | 0.00 | 0.10 | 0.00 | 90 | 1010.2 |
| 20260507021003 | 48 | 188 | 4.0 | 12.0 | 0.00 | 0.10 | 0.00 | 90 | 1010.2 |
| 20260507020904 | 48 | 187 | 4.0 | 12.0 | 0.00 | 0.10 | 0.00 | 90 | 1010.2 |
| 20260507020804 | 48 | 191 | 4.0 | 8.0 | 0.00 | 0.10 | 0.00 | 90 | 1010.2 |
| 20260507020703 | 48 | 193 | 4.0 | 8.0 | 0.00 | 0.10 | 0.00 | 90 | 1010.2 |
| 20260507020603 | 48 | 196 | 3.0 | 8.0 | 0.00 | 0.10 | 0.00 | 90 | 1010.2 |
| 20260507020503 | 48 | 199 | 4.0 | 8.0 | 0.00 | 0.10 | 0.00 | 91 | 1010.1 |
| 20260507020404 | 48 | 200 | 3.0 | 8.0 | 0.00 | 0.10 | 0.00 | 90 | 1010.1 |
| 20260507020304 | 48 | 200 | 4.0 | 8.0 | 0.00 | 0.10 | 0.00 | 90 | 1010.1 |
| 20260507020203 | 48 | 199 | 4.0 | 8.0 | 0.00 | 0.10 | 0.00 | 90 | 1010.1 |
| 20260507020103 | 48 | 200 | 3.0 | 8.0 | 0.00 | 0.10 | 0.00 | 90 | 1010.1 |
| 20260507020003 | 48 | 199 | 4.0 | 12.0 | 0.00 | 0.10 | 0.00 | 90 | 1010.1 |
| 20260507015903 | 48 | 198 | 4.0 | 12.0 | 0.00 | 0.10 | 0.00 | 90 | 1010.1 |
| 20260507015805 | 48 | 196 | 4.0 | 12.0 | 0.00 | 0.10 | 0.00 | 90 | 1010.1 |
| 20260507015703 | 48 | 194 | 3.0 | 12.0 | 0.00 | 0.10 | 0.00 | 90 | 1010.1 |
| 20260507015604 | 48 | 192 | 3.0 | 9.0 | 0.00 | 0.10 | 0.00 | 90 | 1010.1 |
| 20260507015503 | 48 | 192 | 4.0 | 9.0 | 0.00 | 0.10 | 0.00 | 91 | 1010.0 |
| 20260507015403 | 48 | 194 | 3.0 | 9.0 | 0.00 | 0.10 | 0.00 | 91 | 1010.0 |
| 20260507015306 | 48 | 195 | 3.0 | 9.0 | 0.00 | 0.10 | 0.00 | 91 | 1010.0 |
| 20260507015203 | 48 | 195 | 3.0 | 7.0 | 0.00 | 0.10 | 0.00 | 91 | 1010.0 |
| 20260507015104 | 48 | 197 | 2.0 | 6.0 | 0.00 | 0.10 | 0.00 | 91 | 1010.0 |
| 20260507015004 | 48 | 196 | 2.0 | 6.0 | 0.00 | 0.10 | 0.00 | 90 | 1010.0 |
| 20260507014904 | 48 | 195 | 3.0 | 6.0 | 0.00 | 0.10 | 0.00 | 90 | 1010.0 |
| 20260507014803 | 48 | 193 | 3.0 | 6.0 | 0.00 | 0.10 | 0.00 | 90 | 1010.0 |
| 20260507014703 | 48 | 191 | 4.0 | 8.0 | 0.00 | 0.10 | 0.00 | 90 | 1010.0 |
| 20260507014603 | 48 | 189 | 3.0 | 8.0 | 0.00 | 0.10 | 0.00 | 91 | 1009.9 |
| 20260507014503 | 48 | 188 | 3.0 | 8.0 | 0.00 | 0.10 | 0.00 | 91 | 1009.9 |
| 20260507014403 | 48 | 190 | 3.0 | 8.0 | 0.00 | 0.10 | 0.00 | 91 | 1009.9 |
| 20260507014304 | 48 | 193 | 2.0 | 5.0 | 0.00 | 0.10 | 0.00 | 91 | 1009.9 |
| 20260507014204 | 48 | 197 | 3.0 | 8.0 | 0.00 | 0.10 | 0.00 | 92 | 1009.8 |
| 20260507014103 | 49 | 198 | 4.0 | 8.0 | 0.00 | 0.10 | 0.00 | 92 | 1009.8 |
| 20260507014003 | 49 | 200 | 4.0 | 8.0 | 0.00 | 0.10 | 0.00 | 91 | 1009.8 |
| 20260507013903 | 49 | 202 | 4.0 | 8.0 | 0.00 | 0.10 | 0.00 | 91 | 1009.8 |
| 20260507013803 | 49 | 203 | 4.0 | 9.0 | 0.00 | 0.10 | 0.00 | 91 | 1009.8 |
| 20260507013704 | 49 | 203 | 4.0 | 9.0 | 0.00 | 0.10 | 0.00 | 91 | 1009.8 |
| 20260507013604 | 49 | 202 | 4.0 | 9.0 | 0.00 | 0.10 | 0.00 | 91 | 1009.9 |
| 20260507013504 | 49 | 202 | 4.0 | 9.0 | 0.00 | 0.10 | 0.00 | 91 | 1009.9 |
| 20260507013403 | 49 | 204 | 3.0 | 7.0 | 0.00 | 0.10 | 0.00 | 91 | 1009.9 |
| 20260507013303 | 49 | 203 | 4.0 | 10.0 | 0.00 | 0.10 | 0.00 | 91 | 1009.9 |
| 20260507013203 | 49 | 204 | 4.0 | 10.0 | 0.00 | 0.10 | 0.00 | 92 | 1009.9 |
| 20260507013104 | 49 | 203 | 5.0 | 10.0 | 0.00 | 0.10 | 0.00 | 92 | 1009.9 |
| 20260507013004 | 49 | 201 | 4.0 | 10.0 | 0.00 | 0.10 | 0.00 | 92 | 1009.9 |
| 20260507012904 | 49 | 201 | 4.0 | 9.0 | 0.00 | 0.10 | 0.00 | 92 | 1009.9 |
| 20260507012804 | 49 | 201 | 4.0 | 9.0 | 0.00 | 0.10 | 0.00 | 92 | 1009.9 |
| 20260507012703 | 49 | 200 | 4.0 | 9.0 | 0.00 | 0.10 | 0.00 | 92 | 1009.9 |
| 20260507012603 | 49 | 201 | 5.0 | 10.0 | 0.00 | 0.10 | 0.00 | 92 | 1009.9 |
| 20260507012503 | 49 | 202 | 5.0 | 10.0 | 0.00 | 0.10 | 0.00 | 92 | 1009.9 |
| 20260507012403 | 49 | 202 | 5.0 | 10.0 | 0.00 | 0.10 | 0.00 | 93 | 1009.8 |
| 20260507012306 | 49 | 203 | 5.0 | 10.0 | 0.00 | 0.10 | 0.00 | 93 | 1009.8 |
| 20260507012204 | 49 | 204 | 4.0 | 8.0 | 0.00 | 0.10 | 0.00 | 93 | 1009.8 |
| 20260507012103 | 49 | 204 | 3.0 | 8.0 | 0.00 | 0.10 | 0.00 | 93 | 1009.8 |
| 20260507012003 | 49 | 205 | 3.0 | 8.0 | 0.00 | 0.10 | 0.00 | 93 | 1009.8 |
| 20260507011903 | 49 | 205 | 2.0 | 6.0 | 0.00 | 0.10 | 0.00 | 93 | 1009.8 |
| 20260507011803 | 49 | 204 | 2.0 | 6.0 | 0.00 | 0.10 | 0.00 | 93 | 1009.8 |
| 20260507011704 | 49 | 202 | 3.0 | 6.0 | 0.00 | 0.10 | 0.00 | 93 | 1009.8 |
| 20260507011604 | 49 | 200 | 3.0 | 9.0 | 0.00 | 0.10 | 0.00 | 93 | 1009.8 |
| 20260507011504 | 49 | 200 | 4.0 | 10.0 | 0.00 | 0.10 | 0.00 | 93 | 1009.8 |
| 20260507011404 | 49 | 200 | 4.0 | 10.0 | 0.00 | 0.10 | 0.00 | 93 | 1009.8 |
| 20260507011304 | 49 | 200 | 5.0 | 10.0 | 0.00 | 0.10 | 0.00 | 92 | 1009.8 |
| 20260507011203 | 49 | 202 | 5.0 | 10.0 | 0.00 | 0.10 | 0.00 | 92 | 1009.8 |
| 20260507011103 | 49 | 205 | 5.0 | 9.0 | 0.00 | 0.10 | 0.00 | 93 | 1009.8 |
| 20260507011003 | 49 | 207 | 5.0 | 11.0 | 0.00 | 0.10 | 0.00 | 92 | 1009.8 |
| 20260507010903 | 49 | 210 | 5.0 | 11.0 | 0.00 | 0.10 | 0.00 | 93 | 1009.8 |
| 20260507010803 | 49 | 212 | 6.0 | 11.0 | 0.00 | 0.10 | 0.00 | 93 | 1009.8 |
| 20260507010704 | 49 | 214 | 5.0 | 11.0 | 0.00 | 0.10 | 0.00 | 93 | 1009.8 |
| 20260507010603 | 49 | 214 | 5.0 | 9.0 | 0.00 | 0.10 | 0.00 | 93 | 1009.8 |
| 20260507010504 | 49 | 215 | 5.0 | 9.0 | 0.00 | 0.10 | 0.00 | 93 | 1009.8 |
| 20260507010404 | 49 | 215 | 4.0 | 7.0 | 0.00 | 0.10 | 0.00 | 94 | 1009.8 |
| 20260507010304 | 49 | 213 | 4.0 | 7.0 | 0.00 | 0.10 | 0.00 | 93 | 1009.8 |
| 20260507010203 | 49 | 213 | 3.0 | 6.0 | 0.00 | 0.10 | 0.00 | 93 | 1009.8 |
| 20260507010003 | 49 | 209 | 3.0 | 6.0 | 0.00 | 0.10 | 0.00 | 93 | 1009.8 |
| 20260507005903 | 49 | 207 | 3.0 | 6.0 | 0.00 | 0.10 | 0.00 | 94 | 1009.8 |
| 20260507005804 | 49 | 205 | 3.0 | 6.0 | 0.00 | 0.10 | 0.00 | 93 | 1009.7 |
| 20260507005704 | 49 | 203 | 3.0 | 6.0 | 0.00 | 0.10 | 0.00 | 93 | 1009.7 |
| 20260507005603 | 49 | 203 | 3.0 | 6.0 | 0.00 | 0.10 | 0.00 | 93 | 1009.7 |
| 20260507005503 | 49 | 203 | 3.0 | 6.0 | 0.00 | 0.10 | 0.00 | 94 | 1009.7 |
| 20260507005403 | 49 | 203 | 3.0 | 6.0 | 0.00 | 0.10 | 0.00 | 94 | 1009.7 |
| 20260507005305 | 49 | 203 | 3.0 | 5.0 | 0.00 | 0.10 | 0.00 | 93 | 1009.7 |
| 20260507005203 | 49 | 201 | 3.0 | 5.0 | 0.00 | 0.10 | 0.00 | 93 | 1009.7 |
| 20260507005103 | 49 | 200 | 3.0 | 5.0 | 0.00 | 0.10 | 0.00 | 93 | 1009.7 |
| 20260507005003 | 49 | 199 | 3.0 | 7.0 | 0.00 | 0.10 | 0.00 | 94 | 1009.7 |
| 20260507004904 | 49 | 198 | 3.0 | 7.0 | 0.00 | 0.10 | 0.00 | 93 | 1009.7 |
| 20260507004803 | 49 | 199 | 3.0 | 7.0 | 0.00 | 0.10 | 0.00 | 93 | 1009.7 |
| 20260507004703 | 49 | 201 | 3.0 | 7.0 | 0.00 | 0.10 | 0.00 | 94 | 1009.7 |
| 20260507004603 | 49 | 202 | 3.0 | 5.0 | 0.00 | 0.10 | 0.00 | 94 | 1009.6 |
| 20260507004503 | 49 | 202 | 3.0 | 5.0 | 0.00 | 0.10 | 0.00 | 93 | 1009.6 |
| 20260507004403 | 49 | 203 | 3.0 | 5.0 | 0.00 | 0.10 | 0.00 | 93 | 1009.6 |
| 20260507004304 | 49 | 202 | 3.0 | 6.0 | 0.00 | 0.10 | 0.00 | 93 | 1009.6 |
| 20260507004204 | 49 | 202 | 3.0 | 6.0 | 0.00 | 0.10 | 0.00 | 93 | 1009.6 |
| 20260507004104 | 49 | 201 | 4.0 | 6.0 | 0.00 | 0.10 | 0.00 | 94 | 1009.6 |
| 20260507004004 | 49 | 199 | 4.0 | 7.0 | 0.00 | 0.10 | 0.00 | 94 | 1009.6 |
| 20260507003904 | 49 | 199 | 5.0 | 9.0 | 0.00 | 0.10 | 0.00 | 94 | 1009.6 |
| 20260507003804 | 49 | 198 | 5.0 | 9.0 | 0.00 | 0.10 | 0.00 | 94 | 1009.6 |
| 20260507003703 | 49 | 199 | 4.0 | 9.0 | 0.00 | 0.10 | 0.00 | 94 | 1009.6 |
| 20260507003604 | 49 | 199 | 4.0 | 10.0 | 0.00 | 0.10 | 0.00 | 94 | 1009.6 |
| 20260507003504 | 49 | 198 | 4.0 | 10.0 | 0.00 | 0.10 | 0.00 | 94 | 1009.6 |
| 20260507003403 | 49 | 197 | 4.0 | 10.0 | 0.00 | 0.10 | 0.00 | 94 | 1009.6 |
| 20260507003303 | 49 | 196 | 5.0 | 10.0 | 0.00 | 0.10 | 0.00 | 94 | 1009.6 |
| 20260507003203 | 49 | 196 | 4.0 | 9.0 | 0.00 | 0.10 | 0.00 | 94 | 1009.6 |
| 20260507003103 | 49 | 196 | 4.0 | 9.0 | 0.00 | 0.10 | 0.00 | 94 | 1009.6 |
| 20260507003004 | 49 | 197 | 4.0 | 9.0 | 0.00 | 0.10 | 0.00 | 94 | 1009.5 |
| 20260507002904 | 49 | 198 | 4.0 | 8.0 | 0.00 | 0.10 | 0.00 | 95 | 1009.6 |
| 20260507002804 | 49 | 197 | 3.0 | 8.0 | 0.00 | 0.10 | 0.00 | 94 | 1009.6 |
| 20260507002703 | 49 | 197 | 4.0 | 10.0 | 0.00 | 0.10 | 0.00 | 94 | 1009.6 |
| 20260507002603 | 49 | 198 | 5.0 | 10.0 | 0.00 | 0.10 | 0.00 | 94 | 1009.6 |
| 20260507002503 | 49 | 198 | 5.0 | 10.0 | 0.00 | 0.10 | 0.00 | 94 | 1009.6 |
| 20260507002403 | 49 | 198 | 6.0 | 10.0 | 0.00 | 0.10 | 0.00 | 94 | 1009.6 |
| 20260507002306 | 49 | 199 | 5.0 | 10.0 | 0.00 | 0.10 | 0.00 | 94 | 1009.5 |
| 20260507002204 | 49 | 199 | 4.0 | 9.0 | 0.00 | 0.10 | 0.00 | 94 | 1009.5 |
| 20260507002104 | 49 | 199 | 4.0 | 9.0 | 0.00 | 0.10 | 0.00 | 94 | 1009.5 |
| 20260507002003 | 50 | 199 | 4.0 | 8.0 | 0.00 | 0.10 | 0.00 | 94 | 1009.5 |
| 20260507001903 | 50 | 198 | 4.0 | 8.0 | 0.00 | 0.10 | 0.00 | 94 | 1009.5 |
| 20260507001803 | 50 | 198 | 5.0 | 8.0 | 0.00 | 0.10 | 0.00 | 94 | 1009.5 |
| 20260507001704 | 50 | 199 | 5.0 | 8.0 | 0.00 | 0.10 | 0.00 | 94 | 1009.5 |
| 20260507001603 | 50 | 200 | 4.0 | 6.0 | 0.00 | 0.10 | 0.00 | 94 | 1009.5 |
| 20260507001504 | 50 | 203 | 4.0 | 6.0 | 0.00 | 0.10 | 0.00 | 94 | 1009.5 |
| 20260507001404 | 50 | 204 | 3.0 | 6.0 | 0.00 | 0.10 | 0.00 | 94 | 1009.5 |
| 20260507001303 | 50 | 204 | 4.0 | 8.0 | 0.00 | 0.10 | 0.00 | 94 | 1009.5 |
| 20260507001203 | 50 | 204 | 3.0 | 8.0 | 0.00 | 0.10 | 0.00 | 93 | 1009.5 |
| 20260507001103 | 50 | 204 | 3.0 | 8.0 | 0.00 | 0.10 | 0.00 | 93 | 1009.5 |
| 20260507001004 | 50 | 205 | 2.0 | 8.0 | 0.00 | 0.10 | 0.00 | 94 | 1009.5 |
| 20260507000904 | 50 | 204 | 2.0 | 6.0 | 0.00 | 0.10 | 0.00 | 94 | 1009.5 |
| 20260507000803 | 50 | 205 | 2.0 | 6.0 | 0.00 | 0.10 | 0.00 | 93 | 1009.5 |
| 20260507000703 | 50 | 205 | 2.0 | 6.0 | 0.00 | 0.10 | 0.00 | 94 | 1009.5 |
| 20260507000604 | 50 | 205 | 2.0 | 6.0 | 0.00 | 0.10 | 0.00 | 94 | 1009.5 |
| 20260507000503 | 50 | 203 | 3.0 | 6.0 | 0.00 | 0.10 | 0.00 | 94 | 1009.6 |
| 20260507000405 | 50 | 201 | 3.0 | 6.0 | 0.00 | 0.10 | 0.00 | 94 | 1009.5 |
| 20260507000306 | 50 | 198 | 3.0 | 5.0 | 0.00 | 0.10 | 0.00 | 95 | 1009.6 |
| 20260507000205 | 50 | 196 | 3.0 | 5.0 | 0.00 | 0.10 | 0.00 | 94 | 1009.6 |
| 20260506235903 | 50 | 203 | 3.0 | 7.0 | 0.00 | 0.10 | 0.00 | 94 | 1009.6 |
| 20260506235804 | 50 | 208 | 3.0 | 7.0 | 0.00 | 0.10 | 0.00 | 94 | 1009.6 |
| 20260506235703 | 50 | 212 | 3.0 | 7.0 | 0.00 | 0.10 | 0.00 | 94 | 1009.6 |
| 20260506235603 | 50 | 213 | 3.0 | 7.0 | 0.00 | 0.10 | 0.00 | 94 | 1009.6 |
| 20260506235504 | 50 | 215 | 3.0 | 7.0 | 0.00 | 0.10 | 0.00 | 94 | 1009.6 |
| 20260506235403 | 50 | 217 | 3.0 | 7.0 | 0.00 | 0.10 | 0.00 | 94 | 1009.6 |
| 20260506235306 | 50 | 217 | 3.0 | 7.0 | 0.00 | 0.10 | 0.00 | 95 | 1009.6 |
| 20260506235203 | 50 | 213 | 3.0 | 7.0 | 0.00 | 0.10 | 0.00 | 94 | 1009.6 |
| 20260506235104 | 50 | 209 | 3.0 | 7.0 | 0.00 | 0.10 | 0.00 | 94 | 1009.6 |
| 20260506235004 | 50 | 204 | 4.0 | 7.0 | 0.00 | 0.10 | 0.00 | 94 | 1009.6 |
| 20260506234903 | 50 | 202 | 4.0 | 7.0 | 0.00 | 0.10 | 0.00 | 94 | 1009.6 |
| 20260506234803 | 50 | 201 | 3.0 | 7.0 | 0.00 | 0.10 | 0.00 | 94 | 1009.6 |
| 20260506234704 | 50 | 202 | 4.0 | 7.0 | 0.00 | 0.10 | 0.00 | 94 | 1009.6 |
| 20260506234603 | 50 | 203 | 3.0 | 6.0 | 0.00 | 0.10 | 0.00 | 94 | 1009.6 |
| 20260506234503 | 50 | 203 | 3.0 | 6.0 | 0.00 | 0.10 | 0.00 | 94 | 1009.6 |
| 20260506234404 | 50 | 203 | 3.0 | 6.0 | 0.00 | 0.10 | 0.00 | 94 | 1009.6 |
| 20260506234303 | 50 | 203 | 3.0 | 6.0 | 0.00 | 0.10 | 0.00 | 94 | 1009.6 |
| 20260506234203 | 50 | 204 | 3.0 | 6.0 | 0.01 | 0.10 | 0.00 | 94 | 1009.6 |
| 20260506234103 | 50 | 205 | 4.0 | 6.0 | 0.01 | 0.10 | 0.00 | 94 | 1009.6 |
| 20260506234004 | 50 | 205 | 4.0 | 6.0 | 0.01 | 0.10 | 0.00 | 94 | 1009.6 |
| 20260506233903 | 50 | 206 | 4.0 | 6.0 | 0.01 | 0.10 | 0.00 | 94 | 1009.6 |
| 20260506233803 | 50 | 206 | 4.0 | 8.0 | 0.01 | 0.10 | 0.00 | 94 | 1009.6 |
| 20260506233703 | 50 | 207 | 4.0 | 8.0 | 0.01 | 0.10 | 0.00 | 94 | 1009.6 |
| 20260506233604 | 50 | 208 | 3.0 | 8.0 | 0.02 | 0.10 | 0.00 | 94 | 1009.6 |
| 20260506233503 | 50 | 208 | 4.0 | 8.0 | 0.02 | 0.10 | 0.00 | 94 | 1009.6 |
| 20260506233403 | 50 | 208 | 3.0 | 7.0 | 0.02 | 0.10 | 0.00 | 95 | 1009.6 |
| 20260506233303 | 50 | 208 | 2.0 | 7.0 | 0.02 | 0.10 | 0.00 | 95 | 1009.6 |
| 20260506233204 | 50 | 206 | 3.0 | 7.0 | 0.02 | 0.10 | 0.00 | 95 | 1009.5 |
| 20260506233103 | 50 | 204 | 2.0 | 5.0 | 0.02 | 0.10 | 0.00 | 95 | 1009.5 |
| 20260506233003 | 50 | 204 | 3.0 | 5.0 | 0.02 | 0.10 | 0.00 | 95 | 1009.5 |
| 20260506232903 | 50 | 205 | 3.0 | 5.0 | 0.02 | 0.10 | 0.00 | 96 | 1009.5 |
| 20260506232804 | 50 | 207 | 3.0 | 5.0 | 0.02 | 0.10 | 0.00 | 96 | 1009.5 |
| 20260506232704 | 50 | 213 | 3.0 | 6.0 | 0.02 | 0.10 | 0.00 | 95 | 1009.5 |
| 20260506232603 | 50 | 217 | 3.0 | 6.0 | 0.02 | 0.10 | 0.00 | 95 | 1009.5 |
| 20260506232503 | 50 | 221 | 3.0 | 6.0 | 0.02 | 0.10 | 0.00 | 95 | 1009.5 |
| 20260506232403 | 50 | 224 | 3.0 | 6.0 | 0.02 | 0.10 | 0.00 | 95 | 1009.5 |
| 20260506232306 | 50 | 228 | 3.0 | 6.0 | 0.02 | 0.10 | 0.00 | 95 | 1009.5 |
| 20260506232203 | 50 | 230 | 3.0 | 6.0 | 0.02 | 0.10 | 0.00 | 95 | 1009.5 |
| 20260506232103 | 50 | 233 | 2.0 | 4.0 | 0.02 | 0.10 | 0.00 | 95 | 1009.5 |
| 20260506232003 | 50 | 234 | 2.0 | 4.0 | 0.02 | 0.10 | 0.00 | 95 | 1009.5 |
| 20260506231904 | 50 | 234 | 1.0 | 4.0 | 0.02 | 0.10 | 0.00 | 94 | 1009.5 |
| 20260506231804 | 50 | 233 | 1.0 | 4.0 | 0.02 | 0.10 | 0.00 | 94 | 1009.5 |
| 20260506231704 | 50 | 231 | 1.0 | 6.0 | 0.02 | 0.10 | 0.00 | 95 | 1009.5 |
| 20260506231603 | 50 | 230 | 2.0 | 6.0 | 0.02 | 0.10 | 0.00 | 94 | 1009.5 |
| 20260506231503 | 50 | 229 | 2.0 | 6.0 | 0.02 | 0.10 | 0.00 | 95 | 1009.5 |
| 20260506231404 | 50 | 228 | 2.0 | 6.0 | 0.02 | 0.10 | 0.00 | 94 | 1009.6 |
| 20260506231304 | 50 | 225 | 2.0 | 4.0 | 0.02 | 0.10 | 0.00 | 94 | 1009.6 |
| 20260506231204 | 50 | 220 | 2.0 | 4.0 | 0.02 | 0.10 | 0.00 | 94 | 1009.6 |
| 20260506231103 | 50 | 217 | 2.0 | 6.0 | 0.02 | 0.10 | 0.00 | 94 | 1009.5 |
| 20260506231003 | 50 | 217 | 3.0 | 6.0 | 0.02 | 0.10 | 0.00 | 93 | 1009.5 |
| 20260506230903 | 50 | 218 | 4.0 | 9.0 | 0.02 | 0.10 | 0.00 | 93 | 1009.5 |
| 20260506230804 | 50 | 219 | 4.0 | 9.0 | 0.02 | 0.10 | 0.00 | 94 | 1009.5 |
| 20260506230704 | 50 | 219 | 3.0 | 9.0 | 0.02 | 0.10 | 0.00 | 94 | 1009.5 |
| 20260506230603 | 50 | 217 | 3.0 | 9.0 | 0.02 | 0.10 | 0.00 | 95 | 1009.5 |
| 20260506230503 | 50 | 214 | 3.0 | 6.0 | 0.02 | 0.10 | 0.00 | 94 | 1009.5 |
| 20260506230403 | 50 | 210 | 3.0 | 6.0 | 0.02 | 0.10 | 0.00 | 94 | 1009.5 |
| 20260506230304 | 50 | 208 | 3.0 | 6.0 | 0.02 | 0.10 | 0.00 | 94 | 1009.4 |
| 20260506230203 | 50 | 206 | 3.0 | 5.0 | 0.02 | 0.10 | 0.00 | 94 | 1009.4 |
| 20260506230103 | 50 | 205 | 3.0 | 5.0 | 0.02 | 0.10 | 0.00 | 94 | 1009.3 |
| 20260506230003 | 50 | 206 | 2.0 | 4.0 | 0.02 | 0.10 | 0.00 | 94 | 1009.3 |
| 20260506225904 | 50 | 207 | 2.0 | 4.0 | 0.02 | 0.10 | 0.00 | 94 | 1009.3 |
| 20260506225803 | 50 | 209 | 2.0 | 6.0 | 0.02 | 0.10 | 0.00 | 94 | 1009.3 |
| 20260506225703 | 50 | 211 | 2.0 | 6.0 | 0.02 | 0.10 | 0.00 | 94 | 1009.3 |
| 20260506225603 | 50 | 212 | 3.0 | 6.0 | 0.02 | 0.10 | 0.00 | 93 | 1009.4 |
| 20260506225503 | 50 | 211 | 4.0 | 6.0 | 0.02 | 0.10 | 0.00 | 93 | 1009.4 |
| 20260506225403 | 50 | 212 | 3.0 | 7.0 | 0.02 | 0.10 | 0.00 | 94 | 1009.5 |
| 20260506225305 | 50 | 211 | 3.0 | 7.0 | 0.02 | 0.10 | 0.00 | 93 | 1009.5 |
| 20260506225203 | 50 | 211 | 4.0 | 7.0 | 0.02 | 0.10 | 0.00 | 93 | 1009.5 |
| 20260506225104 | 50 | 212 | 4.0 | 7.0 | 0.02 | 0.10 | 0.00 | 93 | 1009.5 |
| 20260506225003 | 50 | 213 | 4.0 | 7.0 | 0.02 | 0.10 | 0.00 | 93 | 1009.5 |
| 20260506224903 | 50 | 213 | 4.0 | 7.0 | 0.02 | 0.10 | 0.00 | 93 | 1009.5 |
| 20260506224803 | 50 | 214 | 4.0 | 7.0 | 0.02 | 0.10 | 0.00 | 93 | 1009.5 |
| 20260506224704 | 50 | 217 | 3.0 | 7.0 | 0.02 | 0.10 | 0.00 | 93 | 1009.4 |
| 20260506224603 | 50 | 222 | 3.0 | 5.0 | 0.01 | 0.09 | 0.00 | 93 | 1009.4 |
| 20260506224503 | 50 | 225 | 3.0 | 5.0 | 0.01 | 0.09 | 0.00 | 92 | 1009.4 |
| 20260506224403 | 50 | 227 | 3.0 | 9.0 | 0.01 | 0.09 | 0.00 | 92 | 1009.4 |
| 20260506224304 | 50 | 227 | 4.0 | 9.0 | 0.01 | 0.09 | 0.00 | 92 | 1009.4 |
| 20260506224203 | 50 | 227 | 3.0 | 9.0 | 0.01 | 0.09 | 0.00 | 92 | 1009.4 |
| 20260506224103 | 50 | 226 | 4.0 | 9.0 | 0.01 | 0.09 | 0.00 | 92 | 1009.4 |
| 20260506224003 | 50 | 224 | 4.0 | 9.0 | 0.00 | 0.09 | 0.00 | 92 | 1009.4 |
| 20260506223903 | 50 | 222 | 4.0 | 9.0 | 0.00 | 0.09 | 0.00 | 91 | 1009.4 |
| 20260506223803 | 50 | 221 | 4.0 | 9.0 | 0.00 | 0.09 | 0.00 | 92 | 1009.5 |
| 20260506223703 | 50 | 219 | 3.0 | 9.0 | 0.00 | 0.08 | 0.00 | 91 | 1009.5 |
| 20260506223604 | 50 | 219 | 3.0 | 9.0 | 0.00 | 0.08 | 0.00 | 91 | 1009.5 |
| 20260506223504 | 51 | 219 | 3.0 | 9.0 | 0.00 | 0.08 | 0.00 | 91 | 1009.5 |
| 20260506223403 | 51 | 217 | 4.0 | 9.0 | 0.00 | 0.08 | 0.00 | 90 | 1009.6 |
| 20260506223303 | 51 | 216 | 4.0 | 9.0 | 0.00 | 0.08 | 0.00 | 90 | 1009.5 |
| 20260506223203 | 51 | 215 | 4.0 | 7.0 | 0.00 | 0.08 | 0.00 | 90 | 1009.5 |
| 20260506223103 | 51 | 212 | 4.0 | 7.0 | 0.00 | 0.08 | 0.00 | 90 | 1009.5 |
| 20260506223003 | 51 | 210 | 4.0 | 7.0 | 0.00 | 0.08 | 0.00 | 91 | 1009.5 |
| 20260506222903 | 51 | 208 | 4.0 | 9.0 | 0.00 | 0.08 | 0.00 | 90 | 1009.5 |
| 20260506222804 | 51 | 207 | 5.0 | 9.0 | 0.00 | 0.08 | 0.00 | 90 | 1009.5 |
| 20260506222704 | 51 | 207 | 6.0 | 10.0 | 0.00 | 0.08 | 0.00 | 90 | 1009.5 |
| 20260506222603 | 51 | 208 | 6.0 | 10.0 | 0.00 | 0.08 | 0.00 | 91 | 1009.5 |
| 20260506222503 | 51 | 209 | 6.0 | 10.0 | 0.00 | 0.08 | 0.00 | 92 | 1009.5 |
| 20260506222403 | 51 | 213 | 6.0 | 10.0 | 0.00 | 0.08 | 0.00 | 92 | 1009.5 |
| 20260506222306 | 50 | 215 | 6.0 | 10.0 | 0.00 | 0.08 | 0.00 | 92 | 1009.4 |
| 20260506222203 | 50 | 216 | 6.0 | 10.0 | 0.00 | 0.08 | 0.00 | 92 | 1009.4 |
| 20260506222103 | 50 | 217 | 7.0 | 11.0 | 0.00 | 0.08 | 0.00 | 92 | 1009.4 |
| 20260506222004 | 50 | 217 | 7.0 | 12.0 | 0.00 | 0.08 | 0.00 | 92 | 1009.4 |
| 20260506221903 | 50 | 216 | 8.0 | 12.0 | 0.00 | 0.08 | 0.00 | 92 | 1009.4 |
| 20260506221803 | 50 | 215 | 9.0 | 12.0 | 0.00 | 0.08 | 0.00 | 92 | 1009.4 |
| 20260506221703 | 50 | 214 | 8.0 | 12.0 | 0.00 | 0.08 | 0.00 | 92 | 1009.4 |
| 20260506221604 | 50 | 212 | 8.0 | 12.0 | 0.00 | 0.08 | 0.00 | 92 | 1009.4 |
| 20260506221504 | 50 | 211 | 7.0 | 12.0 | 0.00 | 0.08 | 0.00 | 92 | 1009.3 |
| 20260506221403 | 50 | 211 | 6.0 | 11.0 | 0.00 | 0.08 | 0.00 | 92 | 1009.3 |
| 20260506221303 | 50 | 210 | 6.0 | 11.0 | 0.00 | 0.08 | 0.00 | 92 | 1009.3 |
| 20260506221203 | 50 | 211 | 5.0 | 11.0 | 0.00 | 0.08 | 0.00 | 92 | 1009.3 |
| 20260506221104 | 50 | 211 | 5.0 | 11.0 | 0.00 | 0.08 | 0.00 | 92 | 1009.3 |
| 20260506221003 | 50 | 210 | 5.0 | 11.0 | 0.00 | 0.08 | 0.00 | 92 | 1009.2 |
| 20260506220903 | 51 | 209 | 5.0 | 10.0 | 0.00 | 0.08 | 0.00 | 92 | 1009.2 |
| 20260506220803 | 51 | 207 | 5.0 | 10.0 | 0.00 | 0.08 | 0.00 | 92 | 1009.2 |
| 20260506220704 | 51 | 208 | 6.0 | 10.0 | 0.00 | 0.08 | 0.00 | 92 | 1009.0 |
| 20260506220604 | 51 | 208 | 5.0 | 9.0 | 0.00 | 0.08 | 0.00 | 92 | 1009.0 |
| 20260506220503 | 51 | 208 | 5.0 | 9.0 | 0.00 | 0.08 | 0.00 | 92 | 1009.0 |
| 20260506220403 | 51 | 208 | 4.0 | 8.0 | 0.00 | 0.08 | 0.00 | 92 | 1009.0 |
| 20260506220303 | 51 | 206 | 4.0 | 6.0 | 0.00 | 0.08 | 0.00 | 93 | 1009.0 |
| 20260506220204 | 51 | 206 | 4.0 | 6.0 | 0.00 | 0.08 | 0.00 | 93 | 1009.0 |
| 20260506220003 | 51 | 204 | 4.0 | 8.0 | 0.00 | 0.08 | 0.00 | 92 | 1008.9 |
| 20260506215903 | 51 | 204 | 4.0 | 8.0 | 0.00 | 0.08 | 0.00 | 92 | 1008.8 |
| 20260506215804 | 51 | 204 | 3.0 | 8.0 | 0.00 | 0.08 | 0.00 | 92 | 1008.8 |
| 20260506215704 | 51 | 205 | 3.0 | 6.0 | 0.00 | 0.08 | 0.00 | 92 | 1008.8 |
| 20260506215603 | 51 | 207 | 3.0 | 6.0 | 0.00 | 0.08 | 0.00 | 93 | 1008.8 |
| 20260506215503 | 51 | 210 | 4.0 | 6.0 | 0.00 | 0.08 | 0.00 | 92 | 1008.8 |
| 20260506215403 | 51 | 215 | 4.0 | 7.0 | 0.00 | 0.08 | 0.00 | 92 | 1008.8 |
| 20260506215306 | 51 | 218 | 4.0 | 7.0 | 0.00 | 0.08 | 0.00 | 92 | 1008.8 |
| 20260506215203 | 51 | 221 | 4.0 | 7.0 | 0.00 | 0.08 | 0.00 | 92 | 1008.7 |
| 20260506215103 | 51 | 222 | 4.0 | 8.0 | 0.00 | 0.08 | 0.00 | 91 | 1008.7 |
| 20260506215004 | 51 | 222 | 4.0 | 8.0 | 0.00 | 0.08 | 0.00 | 91 | 1008.7 |
| 20260506214904 | 51 | 221 | 4.0 | 8.0 | 0.00 | 0.08 | 0.00 | 91 | 1008.7 |
| 20260506214803 | 51 | 222 | 4.0 | 8.0 | 0.00 | 0.08 | 0.00 | 91 | 1008.6 |
| 20260506214703 | 51 | 222 | 4.0 | 8.0 | 0.00 | 0.08 | 0.00 | 91 | 1008.6 |
| 20260506214603 | 51 | 222 | 4.0 | 8.0 | 0.00 | 0.08 | 0.00 | 91 | 1008.6 |
| 20260506214503 | 51 | 221 | 4.0 | 8.0 | 0.00 | 0.08 | 0.00 | 91 | 1008.6 |
| 20260506214403 | 51 | 219 | 4.0 | 8.0 | 0.00 | 0.08 | 0.00 | 91 | 1008.6 |
| 20260506214303 | 51 | 218 | 4.0 | 8.0 | 0.00 | 0.08 | 0.00 | 91 | 1008.6 |
| 20260506214203 | 51 | 215 | 4.0 | 9.0 | 0.00 | 0.08 | 0.00 | 90 | 1008.6 |
| 20260506214104 | 51 | 212 | 4.0 | 9.0 | 0.00 | 0.08 | 0.00 | 90 | 1008.6 |
| 20260506214003 | 51 | 210 | 4.0 | 10.0 | 0.00 | 0.08 | 0.00 | 90 | 1008.6 |
| 20260506213903 | 51 | 210 | 4.0 | 10.0 | 0.00 | 0.08 | 0.00 | 90 | 1008.6 |
| 20260506213804 | 51 | 212 | 5.0 | 10.0 | 0.00 | 0.08 | 0.00 | 90 | 1008.6 |
| 20260506213703 | 51 | 215 | 5.0 | 10.0 | 0.00 | 0.08 | 0.00 | 89 | 1008.6 |
| 20260506213603 | 51 | 217 | 5.0 | 9.0 | 0.00 | 0.08 | 0.00 | 89 | 1008.6 |
| 20260506213503 | 51 | 217 | 5.0 | 9.0 | 0.00 | 0.08 | 0.00 | 89 | 1008.6 |
| 20260506213404 | 51 | 217 | 4.0 | 6.0 | 0.00 | 0.08 | 0.00 | 89 | 1008.6 |
| 20260506213303 | 51 | 216 | 4.0 | 6.0 | 0.00 | 0.08 | 0.00 | 89 | 1008.6 |
| 20260506213203 | 51 | 214 | 4.0 | 6.0 | 0.00 | 0.08 | 0.00 | 89 | 1008.6 |
| 20260506213103 | 52 | 213 | 4.0 | 6.0 | 0.00 | 0.08 | 0.00 | 89 | 1008.6 |
| 20260506213004 | 52 | 212 | 4.0 | 9.0 | 0.00 | 0.08 | 0.00 | 88 | 1008.6 |
| 20260506212903 | 52 | 211 | 5.0 | 9.0 | 0.00 | 0.08 | 0.00 | 89 | 1008.6 |
| 20260506212803 | 52 | 211 | 5.0 | 9.0 | 0.00 | 0.08 | 0.00 | 88 | 1008.5 |
| 20260506212703 | 52 | 212 | 6.0 | 9.0 | 0.00 | 0.08 | 0.00 | 88 | 1008.5 |
| 20260506212604 | 52 | 214 | 6.0 | 9.0 | 0.00 | 0.08 | 0.00 | 88 | 1008.5 |
| 20260506212503 | 52 | 216 | 5.0 | 9.0 | 0.00 | 0.08 | 0.00 | 89 | 1008.5 |
| 20260506212403 | 52 | 216 | 5.0 | 9.0 | 0.00 | 0.08 | 0.00 | 89 | 1008.5 |
| 20260506212306 | 52 | 215 | 4.0 | 9.0 | 0.00 | 0.08 | 0.00 | 88 | 1008.5 |
| 20260506212204 | 52 | 213 | 4.0 | 8.0 | 0.00 | 0.08 | 0.00 | 88 | 1008.5 |
| 20260506212103 | 52 | 211 | 4.0 | 7.0 | 0.00 | 0.08 | 0.00 | 89 | 1008.5 |
| 20260506212003 | 52 | 210 | 4.0 | 7.0 | 0.00 | 0.08 | 0.00 | 89 | 1008.5 |
| 20260506211903 | 52 | 209 | 4.0 | 7.0 | 0.00 | 0.08 | 0.00 | 88 | 1008.4 |
| 20260506211804 | 52 | 208 | 4.0 | 7.0 | 0.00 | 0.08 | 0.00 | 88 | 1008.4 |
| 20260506211703 | 52 | 207 | 4.0 | 7.0 | 0.00 | 0.08 | 0.00 | 89 | 1008.4 |
| 20260506211603 | 52 | 207 | 4.0 | 7.0 | 0.00 | 0.08 | 0.00 | 89 | 1008.4 |
| 20260506211503 | 52 | 205 | 4.0 | 7.0 | 0.00 | 0.08 | 0.00 | 88 | 1008.4 |
| 20260506211404 | 52 | 204 | 4.0 | 7.0 | 0.00 | 0.08 | 0.00 | 88 | 1008.4 |
| 20260506211303 | 52 | 202 | 4.0 | 6.0 | 0.00 | 0.08 | 0.00 | 88 | 1008.4 |
| 20260506211203 | 52 | 202 | 4.0 | 6.0 | 0.00 | 0.08 | 0.00 | 89 | 1008.4 |
| 20260506211103 | 52 | 204 | 4.0 | 6.0 | 0.00 | 0.08 | 0.00 | 89 | 1008.4 |
| 20260506211003 | 52 | 208 | 5.0 | 10.0 | 0.00 | 0.08 | 0.00 | 89 | 1008.4 |
| 20260506210904 | 52 | 210 | 5.0 | 10.0 | 0.00 | 0.08 | 0.00 | 88 | 1008.4 |
| 20260506210803 | 52 | 213 | 5.0 | 10.0 | 0.00 | 0.08 | 0.00 | 88 | 1008.4 |
| 20260506210703 | 52 | 213 | 5.0 | 10.0 | 0.00 | 0.08 | 0.00 | 88 | 1008.4 |
| 20260506210603 | 52 | 212 | 5.0 | 10.0 | 0.00 | 0.08 | 0.00 | 88 | 1008.4 |
| 20260506210504 | 52 | 211 | 5.0 | 10.0 | 0.00 | 0.08 | 0.00 | 89 | 1008.4 |
| 20260506210403 | 52 | 210 | 5.0 | 10.0 | 0.00 | 0.08 | 0.00 | 89 | 1008.4 |
| 20260506210303 | 52 | 207 | 5.0 | 10.0 | 0.00 | 0.08 | 0.00 | 89 | 1008.4 |
| 20260506210203 | 52 | 205 | 4.0 | 7.0 | 0.00 | 0.08 | 0.00 | 89 | 1008.4 |
| 20260506210004 | 52 | 204 | 4.0 | 7.0 | 0.00 | 0.08 | 0.00 | 89 | 1008.4 |
| 20260506205903 | 52 | 205 | 4.0 | 7.0 | 0.00 | 0.08 | 0.00 | 88 | 1008.4 |
| 20260506205803 | 52 | 206 | 4.0 | 7.0 | 0.00 | 0.08 | 0.00 | 88 | 1008.4 |
| 20260506205703 | 52 | 206 | 4.0 | 7.0 | 0.00 | 0.08 | 0.00 | 88 | 1008.4 |
| 20260506205603 | 53 | 205 | 5.0 | 9.0 | 0.00 | 0.08 | 0.00 | 87 | 1008.4 |
| 20260506205503 | 53 | 203 | 4.0 | 9.0 | 0.00 | 0.08 | 0.00 | 87 | 1008.4 |
| 20260506205403 | 53 | 202 | 4.0 | 9.0 | 0.00 | 0.08 | 0.00 | 88 | 1008.4 |
| 20260506205306 | 53 | 201 | 4.0 | 9.0 | 0.00 | 0.08 | 0.00 | 88 | 1008.4 |
| 20260506205204 | 52 | 202 | 4.0 | 6.0 | 0.00 | 0.08 | 0.00 | 88 | 1008.4 |
| 20260506205103 | 52 | 203 | 3.0 | 6.0 | 0.00 | 0.08 | 0.00 | 88 | 1008.4 |
| 20260506205003 | 53 | 204 | 4.0 | 6.0 | 0.00 | 0.08 | 0.00 | 88 | 1008.4 |
| 20260506204903 | 53 | 202 | 4.0 | 9.0 | 0.00 | 0.08 | 0.00 | 88 | 1008.4 |
| 20260506204804 | 53 | 200 | 4.0 | 9.0 | 0.00 | 0.08 | 0.00 | 88 | 1008.4 |
| 20260506204704 | 53 | 200 | 5.0 | 9.0 | 0.00 | 0.08 | 0.00 | 88 | 1008.4 |
| 20260506204603 | 53 | 200 | 6.0 | 11.0 | 0.00 | 0.08 | 0.00 | 88 | 1008.4 |
| 20260506204503 | 53 | 201 | 6.0 | 11.0 | 0.00 | 0.08 | 0.00 | 87 | 1008.3 |
| 20260506204404 | 53 | 202 | 6.0 | 11.0 | 0.00 | 0.08 | 0.00 | 87 | 1008.3 |
| 20260506204303 | 53 | 204 | 6.0 | 11.0 | 0.00 | 0.08 | 0.00 | 87 | 1008.3 |
| 20260506204203 | 53 | 205 | 6.0 | 11.0 | 0.00 | 0.08 | 0.00 | 87 | 1008.3 |
| 20260506204103 | 53 | 207 | 5.0 | 11.0 | 0.00 | 0.08 | 0.00 | 86 | 1008.3 |
| 20260506204004 | 53 | 208 | 5.0 | 11.0 | 0.00 | 0.08 | 0.00 | 86 | 1008.3 |
| 20260506203904 | 53 | 208 | 4.0 | 9.0 | 0.00 | 0.08 | 0.00 | 86 | 1008.3 |
| 20260506203803 | 53 | 207 | 4.0 | 9.0 | 0.00 | 0.08 | 0.00 | 86 | 1008.4 |
| 20260506203703 | 53 | 205 | 4.0 | 8.0 | 0.00 | 0.08 | 0.00 | 86 | 1008.4 |
| 20260506203603 | 53 | 205 | 4.0 | 9.0 | 0.00 | 0.08 | 0.00 | 87 | 1008.3 |
| 20260506203503 | 53 | 205 | 4.0 | 9.0 | 0.00 | 0.08 | 0.00 | 86 | 1008.3 |
| 20260506203403 | 53 | 206 | 5.0 | 10.0 | 0.00 | 0.08 | 0.00 | 85 | 1008.3 |
| 20260506203303 | 53 | 208 | 5.0 | 10.0 | 0.00 | 0.08 | 0.00 | 85 | 1008.3 |
| 20260506203204 | 53 | 210 | 6.0 | 10.0 | 0.00 | 0.08 | 0.00 | 85 | 1008.3 |
| 20260506203103 | 53 | 212 | 6.0 | 10.0 | 0.00 | 0.08 | 0.00 | 85 | 1008.3 |
| 20260506203003 | 53 | 213 | 5.0 | 9.0 | 0.00 | 0.08 | 0.00 | 86 | 1008.2 |
| 20260506202903 | 53 | 213 | 5.0 | 9.0 | 0.00 | 0.08 | 0.00 | 86 | 1008.2 |
| 20260506202804 | 53 | 212 | 4.0 | 9.0 | 0.00 | 0.08 | 0.00 | 86 | 1008.2 |
| 20260506202703 | 53 | 209 | 4.0 | 8.0 | 0.00 | 0.08 | 0.00 | 86 | 1008.2 |
| 20260506202603 | 53 | 206 | 4.0 | 8.0 | 0.00 | 0.08 | 0.00 | 86 | 1008.2 |
| 20260506202503 | 53 | 204 | 4.0 | 7.0 | 0.00 | 0.08 | 0.00 | 86 | 1008.2 |
| 20260506202404 | 53 | 202 | 4.0 | 7.0 | 0.00 | 0.08 | 0.00 | 86 | 1008.1 |
| 20260506202306 | 53 | 202 | 4.0 | 7.0 | 0.00 | 0.08 | 0.00 | 85 | 1008.1 |
| 20260506202203 | 53 | 203 | 4.0 | 8.0 | 0.00 | 0.08 | 0.00 | 86 | 1008.1 |
| 20260506202103 | 53 | 203 | 3.0 | 8.0 | 0.00 | 0.08 | 0.00 | 86 | 1008.0 |
| 20260506202003 | 53 | 203 | 3.0 | 8.0 | 0.00 | 0.08 | 0.00 | 86 | 1008.0 |
| 20260506201904 | 53 | 204 | 3.0 | 8.0 | 0.00 | 0.08 | 0.00 | 87 | 1008.0 |
| 20260506201803 | 53 | 205 | 3.0 | 9.0 | 0.00 | 0.08 | 0.00 | 86 | 1008.0 |
| 20260506201703 | 53 | 206 | 4.0 | 9.0 | 0.00 | 0.08 | 0.00 | 86 | 1008.0 |
| 20260506201603 | 53 | 206 | 5.0 | 9.0 | 0.00 | 0.08 | 0.00 | 85 | 1007.9 |
| 20260506201504 | 53 | 206 | 5.0 | 9.0 | 0.00 | 0.08 | 0.00 | 85 | 1007.9 |
| 20260506201403 | 53 | 206 | 4.0 | 8.0 | 0.00 | 0.08 | 0.00 | 85 | 1007.9 |
| 20260506201303 | 53 | 205 | 4.0 | 8.0 | 0.00 | 0.08 | 0.00 | 86 | 1007.9 |
| 20260506201203 | 53 | 204 | 4.0 | 8.0 | 0.00 | 0.09 | 0.00 | 86 | 1007.9 |
| 20260506201104 | 53 | 201 | 4.0 | 8.0 | 0.00 | 0.09 | 0.00 | 86 | 1007.9 |
| 20260506201003 | 53 | 198 | 4.0 | 8.0 | 0.00 | 0.09 | 0.00 | 86 | 1007.8 |
| 20260506200903 | 52 | 195 | 4.0 | 6.0 | 0.00 | 0.09 | 0.00 | 86 | 1007.8 |
| 20260506200803 | 52 | 192 | 4.0 | 6.0 | 0.00 | 0.09 | 0.00 | 87 | 1007.8 |
| 20260506200703 | 52 | 188 | 4.0 | 6.0 | 0.00 | 0.09 | 0.00 | 87 | 1007.8 |
| 20260506200603 | 52 | 186 | 4.0 | 6.0 | 0.00 | 0.09 | 0.00 | 87 | 1007.8 |
| 20260506200503 | 52 | 183 | 4.0 | 8.0 | 0.00 | 0.09 | 0.00 | 87 | 1007.8 |
| 20260506200404 | 52 | 182 | 4.0 | 8.0 | 0.00 | 0.09 | 0.00 | 86 | 1007.8 |
| 20260506200304 | 52 | 181 | 4.0 | 8.0 | 0.00 | 0.09 | 0.00 | 86 | 1007.8 |
| 20260506200203 | 52 | 180 | 3.0 | 8.0 | 0.00 | 0.09 | 0.00 | 86 | 1007.8 |
| 20260506200103 | 53 | 179 | 3.0 | 6.0 | 0.00 | 0.09 | 0.00 | 86 | 1007.8 |
| 20260506200004 | 53 | 180 | 2.0 | 6.0 | 0.00 | 0.09 | 0.00 | 86 | 1007.6 |
| 20260506195904 | 52 | 183 | 2.0 | 4.0 | 0.00 | 0.09 | 0.00 | 86 | 1007.6 |
| 20260506195804 | 53 | 186 | 2.0 | 4.0 | 0.00 | 0.09 | 0.00 | 86 | 1007.6 |
| 20260506195703 | 53 | 188 | 2.0 | 4.0 | 0.00 | 0.09 | 0.00 | 86 | 1007.6 |
| 20260506195603 | 53 | 191 | 2.0 | 5.0 | 0.00 | 0.09 | 0.00 | 85 | 1007.6 |
| 20260506195503 | 53 | 194 | 2.0 | 6.0 | 0.00 | 0.09 | 0.00 | 85 | 1007.6 |
| 20260506195404 | 53 | 198 | 3.0 | 6.0 | 0.00 | 0.09 | 0.00 | 86 | 1007.6 |
| 20260506195305 | 53 | 203 | 4.0 | 9.0 | 0.00 | 0.09 | 0.00 | 85 | 1007.8 |
| 20260506195203 | 53 | 207 | 5.0 | 11.0 | 0.00 | 0.09 | 0.00 | 85 | 1007.8 |
| 20260506195103 | 53 | 210 | 6.0 | 11.0 | 0.00 | 0.09 | 0.00 | 85 | 1007.8 |
| 20260506195004 | 53 | 212 | 6.0 | 11.0 | 0.00 | 0.09 | 0.00 | 84 | 1007.8 |
| 20260506194903 | 53 | 213 | 5.0 | 11.0 | 0.00 | 0.09 | 0.00 | 84 | 1007.8 |
| 20260506194803 | 53 | 213 | 4.0 | 8.0 | 0.00 | 0.09 | 0.00 | 85 | 1007.8 |
| 20260506194703 | 53 | 214 | 3.0 | 8.0 | 0.00 | 0.09 | 0.00 | 84 | 1007.8 |
| 20260506194604 | 53 | 218 | 3.0 | 6.0 | 0.00 | 0.09 | 0.00 | 84 | 1007.8 |
| 20260506194503 | 53 | 220 | 3.0 | 6.0 | 0.00 | 0.09 | 0.00 | 84 | 1007.6 |
| 20260506194403 | 53 | 221 | 3.0 | 6.0 | 0.00 | 0.09 | 0.00 | 84 | 1007.8 |
| 20260506194303 | 53 | 221 | 3.0 | 6.0 | 0.00 | 0.09 | 0.00 | 85 | 1007.6 |
| 20260506194203 | 53 | 220 | 2.0 | 7.0 | 0.00 | 0.09 | 0.00 | 85 | 1007.6 |
| 20260506194103 | 53 | 219 | 3.0 | 7.0 | 0.00 | 0.09 | 0.00 | 86 | 1007.6 |
| 20260506194003 | 53 | 219 | 4.0 | 8.0 | 0.00 | 0.09 | 0.00 | 86 | 1007.6 |
| 20260506193903 | 53 | 220 | 4.0 | 8.0 | 0.00 | 0.09 | 0.00 | 85 | 1007.6 |
| 20260506193803 | 53 | 221 | 4.0 | 8.0 | 0.00 | 0.09 | 0.00 | 85 | 1007.6 |
| 20260506193704 | 53 | 223 | 3.0 | 8.0 | 0.00 | 0.09 | 0.00 | 84 | 1007.6 |
| 20260506193604 | 53 | 226 | 3.0 | 6.0 | 0.00 | 0.09 | 0.00 | 85 | 1007.6 |
| 20260506193504 | 53 | 225 | 3.0 | 6.0 | 0.00 | 0.09 | 0.00 | 84 | 1007.6 |
| 20260506193403 | 53 | 222 | 3.0 | 6.0 | 0.00 | 0.09 | 0.00 | 85 | 1007.5 |
| 20260506193303 | 53 | 216 | 4.0 | 7.0 | 0.00 | 0.09 | 0.00 | 85 | 1007.5 |
| 20260506193203 | 53 | 212 | 4.0 | 7.0 | 0.00 | 0.09 | 0.00 | 84 | 1007.4 |
| 20260506193104 | 53 | 208 | 4.0 | 7.0 | 0.00 | 0.09 | 0.00 | 84 | 1007.4 |
| 20260506193004 | 53 | 207 | 4.0 | 7.0 | 0.00 | 0.09 | 0.00 | 82 | 1007.3 |
| 20260506192903 | 54 | 205 | 3.0 | 7.0 | 0.00 | 0.09 | 0.00 | 81 | 1007.3 |
| 20260506192803 | 54 | 205 | 2.0 | 7.0 | 0.00 | 0.09 | 0.00 | 80 | 1007.3 |
| 20260506192703 | 53 | 203 | 2.0 | 7.0 | 0.00 | 0.09 | 0.00 | 82 | 1007.2 |
| 20260506192603 | 54 | 198 | 2.0 | 4.0 | 0.00 | 0.09 | 0.00 | 83 | 1007.2 |
| 20260506192503 | 54 | 194 | 3.0 | 5.0 | 0.00 | 0.09 | 0.00 | 80 | 1007.2 |
| 20260506192403 | 53 | 189 | 3.0 | 7.0 | 0.00 | 0.09 | 0.00 | 82 | 1007.2 |
| 20260506192305 | 53 | 186 | 4.0 | 7.0 | 0.00 | 0.09 | 0.00 | 81 | 1007.2 |
| 20260506192203 | 53 | 184 | 3.0 | 7.0 | 0.00 | 0.09 | 0.00 | 84 | 1007.2 |
| 20260506192103 | 53 | 182 | 3.0 | 7.0 | 0.00 | 0.09 | 0.00 | 84 | 1007.1 |
| 20260506192003 | 53 | 180 | 3.0 | 7.0 | 0.00 | 0.09 | 0.00 | 85 | 1007.1 |
| 20260506191904 | 53 | 178 | 3.0 | 6.0 | 0.00 | 0.09 | 0.00 | 88 | 1007.1 |
| 20260506191803 | 53 | 179 | 3.0 | 6.0 | 0.00 | 0.09 | 0.00 | 87 | 1007.1 |
| 20260506191703 | 53 | 181 | 3.0 | 6.0 | 0.00 | 0.09 | 0.00 | 86 | 1007.1 |
| 20260506191603 | 53 | 184 | 3.0 | 6.0 | 0.00 | 0.09 | 0.00 | 84 | 1007.1 |
| 20260506191504 | 53 | 189 | 3.0 | 5.0 | 0.00 | 0.09 | 0.00 | 83 | 1007.0 |
| 20260506191404 | 53 | 190 | 3.0 | 5.0 | 0.00 | 0.09 | 0.00 | 83 | 1007.0 |
| 20260506191303 | 53 | 193 | 3.0 | 5.0 | 0.00 | 0.09 | 0.00 | 82 | 1007.0 |
| 20260506191203 | 53 | 198 | 3.0 | 5.0 | 0.00 | 0.09 | 0.00 | 83 | 1007.0 |
| 20260506191104 | 53 | 200 | 3.0 | 6.0 | 0.00 | 0.09 | 0.00 | 83 | 1007.0 |
| 20260506191004 | 53 | 201 | 3.0 | 6.0 | 0.00 | 0.09 | 0.00 | 84 | 1006.9 |
| 20260506190903 | 53 | 200 | 3.0 | 6.0 | 0.00 | 0.09 | 0.00 | 86 | 1006.9 |
| 20260506190803 | 53 | 196 | 3.0 | 6.0 | 0.00 | 0.09 | 0.00 | 86 | 1006.9 |
| 20260506190703 | 52 | 193 | 3.0 | 6.0 | 0.00 | 0.09 | 0.00 | 86 | 1006.9 |
| 20260506190604 | 52 | 189 | 3.0 | 5.0 | 0.00 | 0.09 | 0.00 | 89 | 1006.9 |
| 20260506190504 | 53 | 186 | 3.0 | 5.0 | 0.00 | 0.09 | 0.00 | 87 | 1006.9 |
| 20260506190403 | 53 | 184 | 2.0 | 5.0 | 0.00 | 0.09 | 0.00 | 85 | 1006.9 |
| 20260506190303 | 53 | 182 | 2.0 | 5.0 | 0.00 | 0.09 | 0.00 | 82 | 1006.8 |
| 20260506190204 | 53 | 179 | 2.0 | 4.0 | 0.00 | 0.09 | 0.00 | 82 | 1006.8 |
| 20260506190104 | 53 | 174 | 2.0 | 3.0 | 0.00 | 0.09 | 0.00 | 83 | 1006.8 |
| 20260506190003 | 53 | 169 | 2.0 | 3.0 | 0.00 | 0.09 | 0.00 | 83 | 1006.8 |
| 20260506185903 | 53 | 163 | 2.0 | 3.0 | 0.00 | 0.09 | 0.00 | 83 | 1006.7 |
| 20260506185803 | 53 | 156 | 2.0 | 6.0 | 0.00 | 0.09 | 0.00 | 82 | 1006.7 |
| 20260506185703 | 53 | 150 | 2.0 | 6.0 | 0.00 | 0.09 | 0.00 | 82 | 1006.7 |
| 20260506185603 | 53 | 144 | 2.0 | 6.0 | 0.00 | 0.09 | 0.00 | 82 | 1006.6 |
| 20260506185503 | 53 | 138 | 2.0 | 6.0 | 0.00 | 0.09 | 0.00 | 82 | 1006.6 |
| 20260506185404 | 53 | 131 | 2.0 | 4.0 | 0.00 | 0.09 | 0.00 | 83 | 1006.6 |
| 20260506185306 | 53 | 128 | 2.0 | 4.0 | 0.00 | 0.09 | 0.00 | 84 | 1006.5 |
| 20260506185203 | 53 | 122 | 1.0 | 3.0 | 0.00 | 0.09 | 0.00 | 85 | 1006.5 |
| 20260506185103 | 53 | 113 | 1.0 | 2.0 | 0.01 | 0.09 | 0.00 | 86 | 1006.5 |
| 20260506185004 | 53 | 108 | 1.0 | 2.0 | 0.01 | 0.09 | 0.00 | 86 | 1006.4 |
| 20260506184904 | 53 | 106 | 2.0 | 2.0 | 0.01 | 0.09 | 0.00 | 87 | 1006.4 |
| 20260506184803 | 53 | 108 | 2.0 | 2.0 | 0.01 | 0.09 | 0.00 | 88 | 1006.2 |
| 20260506184703 | 53 | 110 | 2.0 | 2.0 | 0.01 | 0.09 | 0.00 | 88 | 1006.2 |
| 20260506184604 | 53 | 115 | 2.0 | 3.0 | 0.01 | 0.09 | 0.00 | 88 | 1006.2 |
| 20260506184503 | 53 | 122 | 2.0 | 3.0 | 0.02 | 0.09 | 0.00 | 89 | 1006.2 |
| 20260506184403 | 53 | 126 | 2.0 | 3.0 | 0.02 | 0.09 | 0.00 | 88 | 1006.1 |
| 20260506184303 | 53 | 132 | 1.0 | 3.0 | 0.02 | 0.09 | 0.00 | 87 | 1006.1 |
| 20260506184204 | 53 | 139 | 1.0 | 2.0 | 0.02 | 0.09 | 0.00 | 87 | 1006.1 |
| 20260506184104 | 53 | 143 | 1.0 | 2.0 | 0.02 | 0.09 | 0.00 | 88 | 1006.1 |
| 20260506184004 | 53 | 145 | 0.0 | 2.0 | 0.02 | 0.09 | 0.00 | 88 | 1006.1 |
| 20260506183904 | 53 | 150 | 0.0 | 2.0 | 0.02 | 0.09 | 0.00 | 85 | 1006.0 |
| 20260506183803 | 53 | 0 | 0.0 | 0.0 | 0.02 | 0.09 | 0.00 | 85 | 1006.0 |
| 20260506183704 | 53 | 0 | 0.0 | 0.0 | 0.02 | 0.09 | 0.00 | 88 | 1006.0 |
| 20260506183604 | 53 | 141 | 0.0 | 1.0 | 0.02 | 0.09 | 0.00 | 89 | 1006.0 |
| 20260506183504 | 53 | 135 | 0.0 | 3.0 | 0.02 | 0.09 | 0.00 | 88 | 1006.0 |
| 20260506183404 | 53 | 134 | 1.0 | 3.0 | 0.02 | 0.09 | 0.00 | 87 | 1005.9 |
| 20260506183303 | 53 | 133 | 1.0 | 5.0 | 0.02 | 0.09 | 0.00 | 87 | 1005.9 |
| 20260506183203 | 53 | 134 | 2.0 | 5.0 | 0.03 | 0.09 | 0.00 | 87 | 1005.9 |
| 20260506183103 | 54 | 137 | 2.0 | 6.0 | 0.03 | 0.09 | 0.00 | 86 | 1005.8 |
| 20260506183005 | 53 | 139 | 2.0 | 6.0 | 0.03 | 0.09 | 0.00 | 86 | 1005.8 |
| 20260506182903 | 53 | 143 | 2.0 | 6.0 | 0.03 | 0.09 | 0.00 | 87 | 1005.7 |
| 20260506182804 | 53 | 148 | 2.0 | 6.0 | 0.03 | 0.09 | 0.00 | 86 | 1005.7 |
| 20260506182704 | 53 | 153 | 2.0 | 4.0 | 0.03 | 0.09 | 0.00 | 86 | 1005.7 |
| 20260506182603 | 54 | 157 | 2.0 | 4.0 | 0.03 | 0.09 | 0.00 | 86 | 1005.8 |
| 20260506182503 | 54 | 162 | 2.0 | 4.0 | 0.03 | 0.09 | 0.00 | 87 | 1005.8 |
| 20260506182403 | 54 | 165 | 2.0 | 3.0 | 0.03 | 0.09 | 0.00 | 86 | 1005.9 |
| 20260506182306 | 54 | 167 | 2.0 | 4.0 | 0.03 | 0.08 | 0.00 | 83 | 1005.9 |
| 20260506182203 | 54 | 168 | 2.0 | 4.0 | 0.03 | 0.08 | 0.00 | 83 | 1005.9 |
| 20260506182103 | 54 | 168 | 2.0 | 4.0 | 0.03 | 0.08 | 0.00 | 84 | 1005.9 |
| 20260506182003 | 54 | 167 | 2.0 | 4.0 | 0.03 | 0.08 | 0.00 | 86 | 1005.9 |
| 20260506181904 | 54 | 164 | 2.0 | 4.0 | 0.04 | 0.08 | 0.00 | 84 | 1005.9 |
| 20260506181804 | 53 | 156 | 2.0 | 3.0 | 0.04 | 0.08 | 0.00 | 85 | 1006.0 |
| 20260506181703 | 53 | 153 | 2.0 | 3.0 | 0.04 | 0.08 | 0.00 | 87 | 1005.9 |
| 20260506181603 | 53 | 150 | 2.0 | 4.0 | 0.04 | 0.08 | 0.00 | 88 | 1005.9 |
| 20260506181503 | 53 | 151 | 2.0 | 5.0 | 0.04 | 0.08 | 0.00 | 87 | 1005.9 |
| 20260506181403 | 54 | 153 | 2.0 | 5.0 | 0.04 | 0.08 | 0.00 | 87 | 1005.9 |
| 20260506181303 | 53 | 156 | 2.0 | 5.0 | 0.04 | 0.08 | 0.00 | 87 | 1005.8 |
| 20260506181203 | 53 | 159 | 2.0 | 5.0 | 0.04 | 0.08 | 0.00 | 87 | 1005.7 |
| 20260506181103 | 53 | 158 | 2.0 | 3.0 | 0.04 | 0.08 | 0.00 | 87 | 1005.7 |
| 20260506181004 | 53 | 154 | 2.0 | 3.0 | 0.04 | 0.08 | 0.00 | 87 | 1005.8 |
| 20260506180903 | 53 | 151 | 2.0 | 5.0 | 0.04 | 0.08 | 0.00 | 88 | 1005.8 |
| 20260506180803 | 53 | 152 | 2.0 | 5.0 | 0.05 | 0.08 | 0.00 | 87 | 1005.8 |
| 20260506180703 | 54 | 154 | 2.0 | 5.0 | 0.05 | 0.08 | 0.00 | 86 | 1005.8 |
| 20260506180604 | 54 | 157 | 3.0 | 5.0 | 0.05 | 0.08 | 0.00 | 88 | 1005.7 |
| 20260506180504 | 54 | 163 | 3.0 | 6.0 | 0.05 | 0.08 | 0.00 | 88 | 1005.8 |
| 20260506180403 | 54 | 168 | 3.0 | 6.0 | 0.05 | 0.08 | 0.00 | 87 | 1005.8 |
| 20260506180303 | 54 | 172 | 3.0 | 6.0 | 0.05 | 0.08 | 0.00 | 86 | 1005.8 |
| 20260506180204 | 53 | 173 | 3.0 | 6.0 | 0.05 | 0.08 | 0.00 | 87 | 1005.8 |
| 20260506180104 | 53 | 173 | 3.0 | 6.0 | 0.05 | 0.08 | 0.00 | 88 | 1005.9 |
| 20260506180005 | 53 | 172 | 3.0 | 6.0 | 0.05 | 0.08 | 0.00 | 89 | 1005.9 |
| 20260506175903 | 53 | 171 | 3.0 | 6.0 | 0.06 | 0.08 | 0.00 | 88 | 1005.9 |
| 20260506175804 | 54 | 173 | 3.0 | 6.0 | 0.06 | 0.08 | 0.00 | 87 | 1005.9 |
| 20260506175703 | 54 | 174 | 3.0 | 6.0 | 0.06 | 0.08 | 0.00 | 86 | 1005.8 |
| 20260506175603 | 53 | 176 | 3.0 | 6.0 | 0.06 | 0.08 | 0.00 | 87 | 1005.8 |
| 20260506175503 | 53 | 175 | 2.0 | 6.0 | 0.06 | 0.08 | 0.00 | 88 | 1005.8 |
| 20260506175404 | 53 | 169 | 2.0 | 5.0 | 0.06 | 0.08 | 0.00 | 88 | 1005.9 |
| 20260506175306 | 53 | 165 | 2.0 | 6.0 | 0.06 | 0.08 | 0.00 | 88 | 1005.9 |
| 20260506175203 | 53 | 163 | 3.0 | 7.0 | 0.06 | 0.08 | 0.00 | 88 | 1005.9 |
| 20260506175103 | 53 | 164 | 4.0 | 7.0 | 0.06 | 0.08 | 0.00 | 87 | 1005.9 |
| 20260506175004 | 54 | 166 | 4.0 | 7.0 | 0.06 | 0.08 | 0.00 | 87 | 1005.8 |
| 20260506174904 | 54 | 169 | 4.0 | 7.0 | 0.06 | 0.08 | 0.00 | 87 | 1005.8 |
| 20260506174803 | 54 | 172 | 4.0 | 7.0 | 0.06 | 0.07 | 0.00 | 86 | 1005.8 |
| 20260506174703 | 54 | 174 | 4.0 | 7.0 | 0.06 | 0.07 | 0.00 | 86 | 1005.9 |
| 20260506174603 | 54 | 173 | 3.0 | 7.0 | 0.06 | 0.07 | 0.00 | 85 | 1005.9 |
| 20260506174504 | 54 | 172 | 3.0 | 7.0 | 0.06 | 0.07 | 0.00 | 84 | 1005.9 |
| 20260506174404 | 54 | 171 | 4.0 | 7.0 | 0.06 | 0.07 | 0.00 | 83 | 1005.9 |
| 20260506174303 | 54 | 170 | 4.0 | 7.0 | 0.06 | 0.07 | 0.00 | 84 | 1005.9 |
| 20260506174203 | 54 | 170 | 4.0 | 7.0 | 0.06 | 0.07 | 0.00 | 85 | 1006.0 |
| 20260506174103 | 54 | 172 | 4.0 | 7.0 | 0.06 | 0.07 | 0.00 | 86 | 1006.0 |
| 20260506174003 | 54 | 174 | 4.0 | 11.0 | 0.06 | 0.07 | 0.00 | 84 | 1006.0 |
| 20260506173903 | 54 | 176 | 4.0 | 11.0 | 0.06 | 0.07 | 0.00 | 84 | 1006.0 |
| 20260506173803 | 54 | 177 | 4.0 | 11.0 | 0.06 | 0.06 | 0.00 | 83 | 1006.0 |
| 20260506173704 | 54 | 177 | 5.0 | 11.0 | 0.06 | 0.06 | 0.00 | 83 | 1006.1 |
| 20260506173604 | 54 | 178 | 5.0 | 11.0 | 0.06 | 0.06 | 0.00 | 82 | 1006.1 |
| 20260506173503 | 54 | 177 | 5.0 | 11.0 | 0.06 | 0.06 | 0.00 | 82 | 1006.1 |
| 20260506173403 | 54 | 177 | 5.0 | 11.0 | 0.06 | 0.06 | 0.00 | 81 | 1006.1 |
| 20260506173303 | 54 | 177 | 5.0 | 11.0 | 0.06 | 0.06 | 0.00 | 80 | 1006.1 |
| 20260506173203 | 55 | 175 | 4.0 | 12.0 | 0.06 | 0.06 | 0.00 | 78 | 1006.1 |
| 20260506173103 | 55 | 172 | 5.0 | 16.0 | 0.06 | 0.06 | 0.00 | 77 | 1006.1 |
| 20260506173003 | 55 | 170 | 7.0 | 19.0 | 0.06 | 0.06 | 0.00 | 78 | 1006.1 |
| 20260506172904 | 55 | 169 | 8.0 | 19.0 | 0.06 | 0.06 | 0.00 | 77 | 1006.1 |
| 20260506172803 | 55 | 167 | 8.0 | 19.0 | 0.05 | 0.06 | 0.00 | 77 | 1006.1 |
| 20260506172703 | 55 | 165 | 7.0 | 19.0 | 0.05 | 0.06 | 0.00 | 77 | 1006.0 |
| 20260506172603 | 54 | 164 | 6.0 | 13.0 | 0.05 | 0.06 | 0.00 | 80 | 1006.0 |
| 20260506172504 | 54 | 164 | 6.0 | 11.0 | 0.05 | 0.06 | 0.00 | 81 | 1006.0 |
| 20260506172404 | 54 | 165 | 7.0 | 15.0 | 0.05 | 0.05 | 0.00 | 82 | 1005.9 |
| 20260506172306 | 54 | 166 | 7.0 | 15.0 | 0.05 | 0.05 | 0.00 | 81 | 1005.9 |
| 20260506172203 | 54 | 169 | 8.0 | 18.0 | 0.05 | 0.05 | 0.00 | 81 | 1005.8 |
| 20260506172103 | 54 | 171 | 8.0 | 18.0 | 0.05 | 0.05 | 0.00 | 81 | 1005.8 |
| 20260506172003 | 55 | 173 | 7.0 | 18.0 | 0.04 | 0.05 | 0.00 | 82 | 1005.8 |
| 20260506171903 | 55 | 175 | 7.0 | 18.0 | 0.04 | 0.05 | 0.00 | 81 | 1005.8 |
| 20260506171803 | 55 | 177 | 6.0 | 12.0 | 0.04 | 0.05 | 0.00 | 81 | 1005.8 |
| 20260506171704 | 55 | 179 | 6.0 | 12.0 | 0.04 | 0.04 | 0.00 | 79 | 1005.8 |
| 20260506171603 | 55 | 181 | 5.0 | 12.0 | 0.04 | 0.04 | 0.00 | 78 | 1005.8 |
| 20260506171503 | 56 | 184 | 5.0 | 11.0 | 0.04 | 0.04 | 0.00 | 76 | 1005.8 |
| 20260506171403 | 56 | 187 | 4.0 | 11.0 | 0.04 | 0.04 | 0.00 | 74 | 1005.8 |
| 20260506171303 | 56 | 190 | 5.0 | 11.0 | 0.04 | 0.04 | 0.00 | 74 | 1005.7 |
| 20260506171203 | 56 | 192 | 6.0 | 11.0 | 0.04 | 0.04 | 0.00 | 73 | 1005.7 |
| 20260506171103 | 56 | 194 | 6.0 | 13.0 | 0.04 | 0.04 | 0.00 | 73 | 1005.6 |
| 20260506171003 | 57 | 195 | 7.0 | 13.0 | 0.04 | 0.04 | 0.00 | 71 | 1005.6 |
| 20260506170903 | 56 | 195 | 6.0 | 13.0 | 0.03 | 0.04 | 0.00 | 71 | 1005.5 |
| 20260506170804 | 56 | 193 | 6.0 | 13.0 | 0.03 | 0.04 | 0.00 | 73 | 1005.5 |
| 20260506170703 | 55 | 189 | 4.0 | 11.0 | 0.03 | 0.04 | 0.00 | 78 | 1005.5 |
| 20260506170603 | 55 | 185 | 4.0 | 7.0 | 0.03 | 0.04 | 0.00 | 81 | 1005.4 |
| 20260506170503 | 54 | 181 | 3.0 | 5.0 | 0.03 | 0.04 | 0.00 | 85 | 1005.4 |
| 20260506170404 | 55 | 179 | 3.0 | 5.0 | 0.03 | 0.04 | 0.00 | 86 | 1005.3 |
| 20260506170303 | 55 | 181 | 3.0 | 6.0 | 0.03 | 0.04 | 0.00 | 84 | 1005.3 |
| 20260506170203 | 56 | 185 | 3.0 | 6.0 | 0.03 | 0.03 | 0.00 | 82 | 1005.3 |
| 20260506170103 | 57 | 187 | 3.0 | 6.0 | 0.03 | 0.03 | 0.00 | 78 | 1005.2 |
| 20260506170004 | 57 | 194 | 2.0 | 6.0 | 0.02 | 0.03 | 0.00 | 75 | 1005.2 |
| 20260506165904 | 58 | 200 | 1.0 | 6.0 | 0.02 | 0.02 | 0.00 | 73 | 1005.2 |
| 20260506165804 | 59 | 214 | 1.0 | 5.0 | 0.02 | 0.02 | 0.00 | 69 | 1005.2 |
| 20260506165704 | 59 | 219 | 2.0 | 7.0 | 0.02 | 0.02 | 0.00 | 63 | 1005.2 |
| 20260506165603 | 59 | 227 | 2.0 | 7.0 | 0.02 | 0.02 | 0.00 | 64 | 1005.1 |
| 20260506165503 | 59 | 232 | 4.0 | 7.0 | 0.02 | 0.02 | 0.00 | 64 | 1005.1 |
| 20260506165403 | 59 | 238 | 4.0 | 7.0 | 0.02 | 0.02 | 0.00 | 67 | 1005.1 |
| 20260506165305 | 59 | 244 | 4.0 | 6.0 | 0.02 | 0.02 | 0.00 | 67 | 1005.2 |
| 20260506165203 | 59 | 250 | 4.0 | 6.0 | 0.02 | 0.02 | 0.00 | 72 | 1005.1 |
| 20260506165103 | 60 | 258 | 3.0 | 6.0 | 0.02 | 0.02 | 0.00 | 72 | 1005.1 |
| 20260506165003 | 60 | 267 | 3.0 | 5.0 | 0.02 | 0.02 | 0.00 | 72 | 1005.1 |
| 20260506164904 | 60 | 273 | 3.0 | 5.0 | 0.01 | 0.02 | 0.00 | 74 | 1005.1 |
| 20260506164804 | 61 | 280 | 3.0 | 5.0 | 0.01 | 0.01 | 0.00 | 71 | 1005.1 |
| 20260506164703 | 61 | 288 | 3.0 | 5.0 | 0.01 | 0.01 | 0.00 | 68 | 1005.1 |
| 20260506164603 | 62 | 294 | 3.0 | 5.0 | 0.00 | 0.01 | 0.00 | 68 | 1005.1 |
| 20260506164504 | 62 | 298 | 3.0 | 5.0 | 0.00 | 0.01 | 0.00 | 68 | 1005.0 |
| 20260506164404 | 63 | 305 | 2.0 | 4.0 | 0.00 | 0.01 | 0.00 | 66 | 1005.0 |
| 20260506164304 | 63 | 314 | 2.0 | 4.0 | 0.00 | 0.00 | 0.00 | 64 | 1005.0 |
| 20260506164204 | 63 | 321 | 1.0 | 2.0 | 0.00 | 0.00 | 0.00 | 63 | 1005.0 |
| 20260506164103 | 63 | 328 | 1.0 | 2.0 | 0.00 | 0.00 | 0.00 | 60 | 1004.9 |
| 20260506164003 | 63 | 333 | 1.0 | 2.0 | 0.00 | 0.00 | 0.00 | 59 | 1004.9 |
| 20260506163903 | 63 | 341 | 1.0 | 3.0 | 0.00 | 0.00 | 0.00 | 57 | 1004.7 |
| 20260506163804 | 64 | 343 | 1.0 | 3.0 | 0.00 | 0.00 | 0.00 | 56 | 1004.7 |
| 20260506163703 | 64 | 349 | 2.0 | 4.0 | 0.00 | 0.00 | 0.00 | 56 | 1004.6 |
| 20260506163603 | 64 | 353 | 2.0 | 4.0 | 0.00 | 0.00 | 0.00 | 56 | 1004.6 |
| 20260506163503 | 64 | 357 | 2.0 | 4.0 | 0.00 | 0.00 | 0.00 | 56 | 1004.6 |
| 20260506163404 | 64 | 358 | 2.0 | 4.0 | 0.00 | 0.00 | 0.00 | 55 | 1004.6 |
| 20260506163303 | 64 | 1 | 2.0 | 3.0 | 0.00 | 0.00 | 0.00 | 55 | 1004.6 |
| 20260506163203 | 64 | 3 | 2.0 | 3.0 | 0.00 | 0.00 | 0.00 | 56 | 1004.6 |
| 20260506163103 | 64 | 10 | 2.0 | 4.0 | 0.00 | 0.00 | 0.00 | 57 | 1004.6 |
| 20260506163004 | 64 | 17 | 2.0 | 4.0 | 0.00 | 0.00 | 0.00 | 58 | 1004.6 |
| 20260506162904 | 64 | 21 | 1.0 | 4.0 | 0.00 | 0.00 | 0.00 | 60 | 1004.6 |
| 20260506162803 | 64 | 24 | 1.0 | 4.0 | 0.00 | 0.00 | 0.00 | 55 | 1004.5 |
| 20260506162703 | 64 | 34 | 1.0 | 3.0 | 0.00 | 0.00 | 0.00 | 54 | 1004.5 |
| 20260506162603 | 64 | 44 | 1.0 | 2.0 | 0.00 | 0.00 | 0.00 | 55 | 1004.5 |
| 20260506162504 | 64 | 47 | 1.0 | 4.0 | 0.00 | 0.00 | 0.00 | 55 | 1004.5 |
| 20260506162404 | 64 | 46 | 2.0 | 4.0 | 0.00 | 0.00 | 0.00 | 56 | 1004.4 |
| 20260506162306 | 64 | 44 | 2.0 | 4.0 | 0.00 | 0.00 | 0.00 | 56 | 1004.4 |
| 20260506162203 | 64 | 42 | 2.0 | 6.0 | 0.00 | 0.00 | 0.00 | 55 | 1004.4 |
| 20260506162103 | 64 | 37 | 3.0 | 6.0 | 0.00 | 0.00 | 0.00 | 56 | 1004.4 |
| 20260506162004 | 64 | 33 | 3.0 | 6.0 | 0.00 | 0.00 | 0.00 | 56 | 1004.4 |
| 20260506161903 | 64 | 32 | 4.0 | 9.0 | 0.00 | 0.00 | 0.00 | 56 | 1004.4 |
| 20260506161803 | 64 | 30 | 4.0 | 9.0 | 0.00 | 0.00 | 0.00 | 56 | 1004.4 |
| 20260506161703 | 64 | 30 | 3.0 | 9.0 | 0.00 | 0.00 | 0.00 | 56 | 1004.3 |
| 20260506161604 | 64 | 31 | 2.0 | 9.0 | 0.00 | 0.00 | 0.00 | 56 | 1004.3 |
| 20260506161503 | 64 | 33 | 1.0 | 4.0 | 0.00 | 0.00 | 0.00 | 56 | 1004.3 |
| 20260506161403 | 64 | 34 | 1.0 | 4.0 | 0.00 | 0.00 | 0.00 | 56 | 1004.3 |
| 20260506161303 | 64 | 34 | 2.0 | 5.0 | 0.00 | 0.00 | 0.00 | 56 | 1004.3 |
| 20260506161204 | 64 | 34 | 3.0 | 9.0 | 0.00 | 0.00 | 0.00 | 56 | 1004.3 |
| 20260506161103 | 64 | 34 | 4.0 | 9.0 | 0.00 | 0.00 | 0.00 | 56 | 1004.3 |
| 20260506161003 | 64 | 35 | 4.0 | 9.0 | 0.00 | 0.00 | 0.00 | 56 | 1004.3 |
| 20260506160903 | 64 | 38 | 5.0 | 9.0 | 0.00 | 0.00 | 0.00 | 56 | 1004.3 |
| 20260506160803 | 64 | 40 | 4.0 | 8.0 | 0.00 | 0.00 | 0.00 | 55 | 1004.3 |
| 20260506160704 | 64 | 43 | 4.0 | 8.0 | 0.00 | 0.00 | 0.00 | 56 | 1004.3 |
| 20260506160604 | 64 | 47 | 3.0 | 5.0 | 0.00 | 0.00 | 0.00 | 56 | 1004.4 |
| 20260506160504 | 64 | 50 | 2.0 | 5.0 | 0.00 | 0.00 | 0.00 | 56 | 1004.4 |
| 20260506160403 | 64 | 52 | 3.0 | 5.0 | 0.00 | 0.00 | 0.00 | 55 | 1004.4 |
| 20260506160303 | 64 | 53 | 2.0 | 5.0 | 0.00 | 0.00 | 0.00 | 55 | 1004.5 |
| 20260506160203 | 64 | 52 | 2.0 | 4.0 | 0.00 | 0.00 | 0.00 | 55 | 1004.5 |
| 20260506160104 | 64 | 51 | 2.0 | 4.0 | 0.00 | 0.00 | 0.00 | 55 | 1004.5 |
| 20260506160003 | 64 | 50 | 3.0 | 6.0 | 0.00 | 0.00 | 0.00 | 55 | 1004.5 |
| 20260506155903 | 64 | 50 | 4.0 | 7.0 | 0.00 | 0.00 | 0.00 | 55 | 1004.5 |
| 20260506155803 | 64 | 50 | 4.0 | 7.0 | 0.00 | 0.00 | 0.00 | 56 | 1004.5 |
| 20260506155703 | 64 | 48 | 4.0 | 8.0 | 0.00 | 0.00 | 0.00 | 55 | 1004.5 |
| 20260506155604 | 64 | 47 | 4.0 | 8.0 | 0.00 | 0.00 | 0.00 | 55 | 1004.5 |
| 20260506155503 | 65 | 45 | 4.0 | 8.0 | 0.00 | 0.00 | 0.00 | 55 | 1004.5 |
| 20260506155403 | 65 | 44 | 4.0 | 8.0 | 0.00 | 0.00 | 0.00 | 55 | 1004.5 |
| 20260506155306 | 65 | 40 | 4.0 | 6.0 | 0.00 | 0.00 | 0.00 | 55 | 1004.5 |
| 20260506155204 | 65 | 36 | 4.0 | 7.0 | 0.00 | 0.00 | 0.00 | 55 | 1004.5 |
| 20260506155104 | 65 | 32 | 3.0 | 7.0 | 0.00 | 0.00 | 0.00 | 54 | 1004.5 |
| 20260506155004 | 65 | 25 | 4.0 | 7.0 | 0.00 | 0.00 | 0.00 | 54 | 1004.5 |
| 20260506154903 | 65 | 18 | 4.0 | 8.0 | 0.00 | 0.00 | 0.00 | 54 | 1004.6 |
| 20260506154803 | 65 | 12 | 3.0 | 8.0 | 0.00 | 0.00 | 0.00 | 54 | 1004.6 |
| 20260506154703 | 65 | 9 | 3.0 | 8.0 | 0.00 | 0.00 | 0.00 | 55 | 1004.6 |
| 20260506154603 | 65 | 3 | 3.0 | 9.0 | 0.00 | 0.00 | 0.00 | 54 | 1004.6 |
| 20260506154503 | 65 | 360 | 4.0 | 9.0 | 0.00 | 0.00 | 0.00 | 54 | 1004.6 |
| 20260506154403 | 65 | 357 | 4.0 | 9.0 | 0.00 | 0.00 | 0.00 | 54 | 1004.6 |
| 20260506154304 | 65 | 357 | 4.0 | 9.0 | 0.00 | 0.00 | 0.00 | 54 | 1004.6 |
| 20260506154203 | 65 | 353 | 3.0 | 8.0 | 0.00 | 0.00 | 0.00 | 54 | 1004.6 |
| 20260506154103 | 65 | 345 | 3.0 | 7.0 | 0.00 | 0.00 | 0.00 | 54 | 1004.6 |
| 20260506154003 | 65 | 338 | 3.0 | 6.0 | 0.00 | 0.00 | 0.00 | 53 | 1004.6 |
| 20260506153904 | 65 | 337 | 4.0 | 6.0 | 0.00 | 0.00 | 0.00 | 52 | 1004.6 |
| 20260506153803 | 65 | 337 | 4.0 | 6.0 | 0.00 | 0.00 | 0.00 | 52 | 1004.7 |
| 20260506153703 | 65 | 337 | 4.0 | 6.0 | 0.00 | 0.00 | 0.00 | 51 | 1004.7 |
| 20260506153603 | 65 | 338 | 4.0 | 6.0 | 0.00 | 0.00 | 0.00 | 47 | 1004.7 |
| 20260506153504 | 65 | 338 | 4.0 | 5.0 | 0.00 | 0.00 | 0.00 | 47 | 1004.7 |
| 20260506153404 | 65 | 336 | 3.0 | 5.0 | 0.00 | 0.00 | 0.00 | 49 | 1004.7 |
| 20260506153303 | 65 | 333 | 4.0 | 6.0 | 0.00 | 0.00 | 0.00 | 48 | 1004.7 |
| 20260506153203 | 65 | 331 | 4.0 | 7.0 | 0.00 | 0.00 | 0.00 | 48 | 1004.7 |
| 20260506153103 | 65 | 330 | 4.0 | 7.0 | 0.00 | 0.00 | 0.00 | 48 | 1004.7 |
| 20260506153004 | 65 | 328 | 4.0 | 7.0 | 0.00 | 0.00 | 0.00 | 47 | 1004.7 |
| 20260506152904 | 65 | 326 | 4.0 | 8.0 | 0.00 | 0.00 | 0.00 | 48 | 1004.7 |
| 20260506152803 | 65 | 324 | 4.0 | 8.0 | 0.00 | 0.00 | 0.00 | 48 | 1004.7 |
| 20260506152703 | 65 | 324 | 5.0 | 9.0 | 0.00 | 0.00 | 0.00 | 48 | 1004.7 |
| 20260506152603 | 65 | 324 | 4.0 | 9.0 | 0.00 | 0.00 | 0.00 | 48 | 1004.7 |
| 20260506152504 | 65 | 327 | 4.0 | 9.0 | 0.00 | 0.00 | 0.00 | 48 | 1004.7 |
| 20260506152403 | 65 | 331 | 4.0 | 9.0 | 0.00 | 0.00 | 0.00 | 48 | 1004.7 |
| 20260506152305 | 65 | 337 | 3.0 | 5.0 | 0.00 | 0.00 | 0.00 | 48 | 1004.7 |
| 20260506152203 | 66 | 342 | 3.0 | 5.0 | 0.00 | 0.00 | 0.00 | 49 | 1004.7 |
| 20260506152104 | 66 | 346 | 2.0 | 5.0 | 0.00 | 0.00 | 0.00 | 49 | 1004.7 |
| 20260506152004 | 66 | 351 | 2.0 | 4.0 | 0.00 | 0.00 | 0.00 | 50 | 1004.6 |
| 20260506151904 | 66 | 353 | 2.0 | 4.0 | 0.00 | 0.00 | 0.00 | 50 | 1004.6 |
| 20260506151803 | 66 | 353 | 2.0 | 5.0 | 0.00 | 0.00 | 0.00 | 50 | 1004.6 |
| 20260506151703 | 66 | 354 | 3.0 | 6.0 | 0.00 | 0.00 | 0.00 | 49 | 1004.6 |
| 20260506151603 | 65 | 353 | 3.0 | 6.0 | 0.00 | 0.00 | 0.00 | 48 | 1004.6 |
| 20260506151504 | 65 | 353 | 4.0 | 6.0 | 0.00 | 0.00 | 0.00 | 48 | 1004.6 |
| 20260506151403 | 65 | 354 | 4.0 | 6.0 | 0.00 | 0.00 | 0.00 | 48 | 1004.6 |
| 20260506151303 | 65 | 355 | 4.0 | 6.0 | 0.00 | 0.00 | 0.00 | 48 | 1004.7 |
| 20260506151203 | 66 | 356 | 4.0 | 6.0 | 0.00 | 0.00 | 0.00 | 49 | 1004.7 |
| 20260506151103 | 66 | 356 | 4.0 | 9.0 | 0.00 | 0.00 | 0.00 | 49 | 1004.7 |
| 20260506151004 | 66 | 356 | 4.0 | 9.0 | 0.00 | 0.00 | 0.00 | 49 | 1004.7 |
| 20260506150904 | 66 | 357 | 4.0 | 9.0 | 0.00 | 0.00 | 0.00 | 49 | 1004.7 |
| 20260506150804 | 66 | 357 | 4.0 | 9.0 | 0.00 | 0.00 | 0.00 | 49 | 1004.7 |
| 20260506150703 | 66 | 358 | 4.0 | 6.0 | 0.00 | 0.00 | 0.00 | 49 | 1004.7 |
| 20260506150603 | 66 | 359 | 4.0 | 8.0 | 0.00 | 0.00 | 0.00 | 49 | 1004.7 |
| 20260506150504 | 66 | 360 | 5.0 | 8.0 | 0.00 | 0.00 | 0.00 | 49 | 1004.7 |
| 20260506150404 | 66 | 1 | 5.0 | 8.0 | 0.00 | 0.00 | 0.00 | 48 | 1004.7 |
| 20260506150305 | 67 | 3 | 4.0 | 8.0 | 0.00 | 0.00 | 0.00 | 48 | 1004.7 |
| 20260506150203 | 67 | 8 | 3.0 | 8.0 | 0.00 | 0.00 | 0.00 | 48 | 1004.7 |
| 20260506150103 | 67 | 19 | 3.0 | 7.0 | 0.00 | 0.00 | 0.00 | 48 | 1004.7 |
| 20260506150004 | 67 | 23 | 3.0 | 7.0 | 0.00 | 0.00 | 0.00 | 48 | 1004.7 |
| 20260506145904 | 67 | 26 | 4.0 | 9.0 | 0.00 | 0.00 | 0.00 | 47 | 1004.7 |
| 20260506145803 | 67 | 25 | 4.0 | 9.0 | 0.00 | 0.00 | 0.00 | 47 | 1004.9 |
| 20260506145703 | 67 | 23 | 3.0 | 9.0 | 0.00 | 0.00 | 0.00 | 46 | 1004.9 |
| 20260506145603 | 68 | 21 | 3.0 | 9.0 | 0.00 | 0.00 | 0.00 | 46 | 1004.9 |
| 20260506145503 | 67 | 19 | 3.0 | 5.0 | 0.00 | 0.00 | 0.00 | 46 | 1004.9 |
| 20260506145404 | 67 | 19 | 3.0 | 5.0 | 0.00 | 0.00 | 0.00 | 47 | 1004.9 |
| 20260506145305 | 67 | 19 | 3.0 | 6.0 | 0.00 | 0.00 | 0.00 | 49 | 1004.9 |
| 20260506145203 | 67 | 22 | 4.0 | 7.0 | 0.00 | 0.00 | 0.00 | 48 | 1004.9 |
| 20260506145103 | 67 | 26 | 4.0 | 9.0 | 0.00 | 0.00 | 0.00 | 48 | 1004.9 |
| 20260506145004 | 67 | 29 | 4.0 | 9.0 | 0.00 | 0.00 | 0.00 | 48 | 1005.0 |
| 20260506144904 | 66 | 32 | 3.0 | 9.0 | 0.00 | 0.00 | 0.00 | 48 | 1005.0 |
| 20260506144804 | 66 | 38 | 3.0 | 9.0 | 0.00 | 0.00 | 0.00 | 48 | 1005.0 |
| 20260506144703 | 66 | 42 | 2.0 | 5.0 | 0.00 | 0.00 | 0.00 | 48 | 1005.0 |
| 20260506144603 | 66 | 43 | 2.0 | 5.0 | 0.00 | 0.00 | 0.00 | 48 | 1005.0 |
| 20260506144504 | 66 | 44 | 2.0 | 5.0 | 0.00 | 0.00 | 0.00 | 47 | 1005.0 |
| 20260506144404 | 66 | 47 | 1.0 | 4.0 | 0.00 | 0.00 | 0.00 | 46 | 1005.0 |
| 20260506144303 | 66 | 41 | 1.0 | 4.0 | 0.00 | 0.00 | 0.00 | 45 | 1005.0 |
| 20260506144203 | 66 | 38 | 1.0 | 4.0 | 0.00 | 0.00 | 0.00 | 46 | 1005.0 |
| 20260506144103 | 66 | 36 | 2.0 | 4.0 | 0.00 | 0.00 | 0.00 | 46 | 1005.0 |
| 20260506144004 | 66 | 28 | 2.0 | 5.0 | 0.00 | 0.00 | 0.00 | 46 | 1005.1 |
| 20260506143903 | 66 | 22 | 2.0 | 6.0 | 0.00 | 0.00 | 0.00 | 46 | 1005.1 |
| 20260506143803 | 66 | 16 | 2.0 | 6.0 | 0.00 | 0.00 | 0.00 | 46 | 1005.1 |
| 20260506143603 | 66 | 7 | 3.0 | 6.0 | 0.00 | 0.00 | 0.00 | 46 | 1005.1 |
| 20260506143504 | 66 | 4 | 3.0 | 6.0 | 0.00 | 0.00 | 0.00 | 47 | 1005.1 |
| 20260506143403 | 66 | 2 | 3.0 | 6.0 | 0.00 | 0.00 | 0.00 | 49 | 1005.1 |
| 20260506143303 | 66 | 1 | 3.0 | 4.0 | 0.00 | 0.00 | 0.00 | 50 | 1005.1 |
| 20260506143203 | 66 | 0 | 3.0 | 6.0 | 0.00 | 0.00 | 0.00 | 50 | 1005.1 |
| 20260506143104 | 66 | 360 | 3.0 | 6.0 | 0.00 | 0.00 | 0.00 | 49 | 1005.2 |
| 20260506143004 | 66 | 359 | 4.0 | 6.0 | 0.00 | 0.00 | 0.00 | 49 | 1005.1 |
| 20260506142904 | 66 | 359 | 4.0 | 6.0 | 0.00 | 0.00 | 0.00 | 48 | 1005.2 |
| 20260506142803 | 66 | 358 | 3.0 | 6.0 | 0.00 | 0.00 | 0.00 | 49 | 1005.2 |
| 20260506142703 | 66 | 359 | 3.0 | 6.0 | 0.00 | 0.00 | 0.00 | 49 | 1005.2 |
| 20260506142603 | 66 | 360 | 4.0 | 6.0 | 0.00 | 0.00 | 0.00 | 49 | 1005.2 |
| 20260506142503 | 66 | 1 | 4.0 | 6.0 | 0.00 | 0.00 | 0.00 | 48 | 1005.2 |
| 20260506142403 | 66 | 2 | 4.0 | 6.0 | 0.00 | 0.00 | 0.00 | 48 | 1005.2 |
| 20260506142306 | 67 | 2 | 3.0 | 6.0 | 0.00 | 0.00 | 0.00 | 49 | 1005.2 |
| 20260506142203 | 67 | 3 | 2.0 | 6.0 | 0.00 | 0.00 | 0.00 | 50 | 1005.2 |
| 20260506142104 | 67 | 1 | 2.0 | 4.0 | 0.00 | 0.00 | 0.00 | 49 | 1005.2 |
| 20260506142004 | 67 | 0 | 1.0 | 4.0 | 0.00 | 0.00 | 0.00 | 49 | 1005.2 |
| 20260506141903 | 67 | 0 | 1.0 | 4.0 | 0.00 | 0.00 | 0.00 | 49 | 1005.2 |
| 20260506141803 | 67 | 0 | 2.0 | 5.0 | 0.00 | 0.00 | 0.00 | 50 | 1005.2 |
| 20260506141703 | 67 | 360 | 2.0 | 5.0 | 0.00 | 0.00 | 0.00 | 49 | 1005.2 |
| 20260506141604 | 67 | 360 | 2.0 | 5.0 | 0.00 | 0.00 | 0.00 | 49 | 1005.2 |
| 20260506141503 | 67 | 358 | 1.0 | 5.0 | 0.00 | 0.00 | 0.00 | 49 | 1005.2 |
| 20260506141403 | 66 | 346 | 0.0 | 3.0 | 0.00 | 0.00 | 0.00 | 48 | 1005.2 |
| 20260506141303 | 67 | 342 | 0.0 | 3.0 | 0.00 | 0.00 | 0.00 | 47 | 1005.2 |
| 20260506141204 | 67 | 339 | 0.0 | 3.0 | 0.00 | 0.00 | 0.00 | 47 | 1005.2 |
| 20260506141103 | 67 | 335 | 1.0 | 3.0 | 0.00 | 0.00 | 0.00 | 46 | 1005.2 |
| 20260506141003 | 67 | 332 | 1.0 | 2.0 | 0.00 | 0.00 | 0.00 | 47 | 1005.2 |
| 20260506140903 | 66 | 332 | 1.0 | 2.0 | 0.00 | 0.00 | 0.00 | 47 | 1005.3 |
| 20260506140804 | 66 | 330 | 1.0 | 2.0 | 0.00 | 0.00 | 0.00 | 47 | 1005.3 |
| 20260506140703 | 66 | 328 | 0.0 | 2.0 | 0.00 | 0.00 | 0.00 | 47 | 1005.3 |
| 20260506140603 | 66 | 326 | 1.0 | 3.0 | 0.00 | 0.00 | 0.00 | 47 | 1005.3 |
| 20260506140503 | 66 | 324 | 1.0 | 3.0 | 0.00 | 0.00 | 0.00 | 47 | 1005.3 |
| 20260506140404 | 66 | 321 | 2.0 | 3.0 | 0.00 | 0.00 | 0.00 | 47 | 1005.3 |
| 20260506140303 | 66 | 316 | 2.0 | 4.0 | 0.00 | 0.00 | 0.00 | 47 | 1005.3 |
| 20260506140203 | 67 | 312 | 2.0 | 4.0 | 0.00 | 0.00 | 0.00 | 46 | 1005.3 |
| 20260506140103 | 67 | 311 | 2.0 | 4.0 | 0.00 | 0.00 | 0.00 | 47 | 1005.3 |
| 20260506140004 | 66 | 310 | 2.0 | 4.0 | 0.00 | 0.00 | 0.00 | 47 | 1005.3 |
| 20260506135903 | 67 | 310 | 2.0 | 4.0 | 0.00 | 0.00 | 0.00 | 48 | 1005.3 |
| 20260506135803 | 66 | 309 | 2.0 | 4.0 | 0.00 | 0.00 | 0.00 | 47 | 1005.4 |
| 20260506135703 | 66 | 310 | 2.0 | 4.0 | 0.00 | 0.00 | 0.00 | 49 | 1005.4 |
| 20260506135603 | 65 | 310 | 2.0 | 4.0 | 0.00 | 0.00 | 0.00 | 48 | 1005.4 |
| 20260506135503 | 65 | 309 | 1.0 | 2.0 | 0.00 | 0.00 | 0.00 | 49 | 1005.4 |
| 20260506135403 | 65 | 305 | 2.0 | 3.0 | 0.00 | 0.00 | 0.00 | 50 | 1005.4 |
| 20260506135306 | 65 | 298 | 2.0 | 4.0 | 0.00 | 0.00 | 0.00 | 50 | 1005.4 |
| 20260506135203 | 65 | 295 | 2.0 | 4.0 | 0.00 | 0.00 | 0.00 | 49 | 1005.5 |
| 20260506135104 | 65 | 290 | 3.0 | 5.0 | 0.00 | 0.00 | 0.00 | 52 | 1005.5 |
| 20260506135004 | 65 | 286 | 3.0 | 5.0 | 0.00 | 0.00 | 0.00 | 51 | 1005.5 |
| 20260506134904 | 65 | 282 | 3.0 | 5.0 | 0.00 | 0.00 | 0.00 | 51 | 1005.5 |
| 20260506134803 | 65 | 279 | 3.0 | 5.0 | 0.00 | 0.00 | 0.00 | 52 | 1005.6 |
| 20260506134703 | 65 | 279 | 3.0 | 4.0 | 0.00 | 0.00 | 0.00 | 51 | 1005.6 |
| 20260506134603 | 65 | 280 | 4.0 | 6.0 | 0.00 | 0.00 | 0.00 | 51 | 1005.6 |
| 20260506134504 | 65 | 281 | 3.0 | 6.0 | 0.00 | 0.00 | 0.00 | 51 | 1005.6 |
| 20260506134403 | 65 | 283 | 2.0 | 6.0 | 0.00 | 0.00 | 0.00 | 50 | 1005.6 |
| 20260506134303 | 65 | 283 | 2.0 | 6.0 | 0.00 | 0.00 | 0.00 | 51 | 1005.6 |
| 20260506134203 | 65 | 282 | 2.0 | 4.0 | 0.00 | 0.00 | 0.00 | 52 | 1005.6 |
| 20260506134104 | 65 | 283 | 2.0 | 4.0 | 0.00 | 0.00 | 0.00 | 53 | 1005.6 |
| 20260506134004 | 65 | 285 | 3.0 | 5.0 | 0.00 | 0.00 | 0.00 | 51 | 1005.6 |
| 20260506133903 | 65 | 287 | 4.0 | 7.0 | 0.00 | 0.00 | 0.00 | 51 | 1005.6 |
| 20260506133803 | 65 | 289 | 4.0 | 7.0 | 0.00 | 0.00 | 0.00 | 51 | 1005.6 |
| 20260506133703 | 65 | 291 | 4.0 | 7.0 | 0.00 | 0.00 | 0.00 | 51 | 1005.6 |
| 20260506133604 | 65 | 293 | 3.0 | 7.0 | 0.00 | 0.00 | 0.00 | 51 | 1005.5 |
| 20260506133503 | 65 | 296 | 2.0 | 5.0 | 0.00 | 0.00 | 0.00 | 53 | 1005.5 |
| 20260506133403 | 65 | 300 | 2.0 | 6.0 | 0.00 | 0.00 | 0.00 | 52 | 1005.5 |
| 20260506133303 | 65 | 301 | 3.0 | 8.0 | 0.00 | 0.00 | 0.00 | 51 | 1005.5 |
| 20260506133204 | 65 | 300 | 4.0 | 8.0 | 0.00 | 0.00 | 0.00 | 51 | 1005.5 |
| 20260506133104 | 65 | 297 | 4.0 | 8.0 | 0.00 | 0.00 | 0.00 | 51 | 1005.4 |
| 20260506133003 | 65 | 293 | 5.0 | 8.0 | 0.00 | 0.00 | 0.00 | 50 | 1005.4 |
| 20260506132903 | 65 | 289 | 4.0 | 7.0 | 0.00 | 0.00 | 0.00 | 49 | 1005.4 |
| 20260506132803 | 66 | 286 | 3.0 | 6.0 | 0.00 | 0.00 | 0.00 | 51 | 1005.4 |
| 20260506132703 | 65 | 286 | 3.0 | 6.0 | 0.00 | 0.00 | 0.00 | 52 | 1005.4 |
| 20260506132604 | 65 | 285 | 3.0 | 6.0 | 0.00 | 0.00 | 0.00 | 51 | 1005.3 |
| 20260506132503 | 65 | 282 | 3.0 | 6.0 | 0.00 | 0.00 | 0.00 | 50 | 1005.3 |
| 20260506132403 | 65 | 276 | 3.0 | 6.0 | 0.00 | 0.00 | 0.00 | 51 | 1005.3 |
| 20260506132306 | 65 | 270 | 3.0 | 6.0 | 0.00 | 0.00 | 0.00 | 51 | 1005.3 |
| 20260506132203 | 66 | 263 | 3.0 | 5.0 | 0.00 | 0.00 | 0.00 | 51 | 1005.3 |
| 20260506132103 | 65 | 255 | 3.0 | 5.0 | 0.00 | 0.00 | 0.00 | 51 | 1005.4 |
| 20260506132005 | 66 | 248 | 2.0 | 5.0 | 0.00 | 0.00 | 0.00 | 50 | 1005.4 |
| 20260506131903 | 66 | 241 | 3.0 | 5.0 | 0.00 | 0.00 | 0.00 | 48 | 1005.4 |
| 20260506131803 | 66 | 236 | 2.0 | 5.0 | 0.00 | 0.00 | 0.00 | 48 | 1005.4 |
| 20260506131703 | 67 | 230 | 2.0 | 4.0 | 0.00 | 0.00 | 0.00 | 48 | 1005.4 |
| 20260506131604 | 67 | 227 | 2.0 | 4.0 | 0.00 | 0.00 | 0.00 | 47 | 1005.4 |
| 20260506131503 | 67 | 225 | 2.0 | 4.0 | 0.00 | 0.00 | 0.00 | 45 | 1005.4 |
| 20260506131403 | 67 | 225 | 1.0 | 4.0 | 0.00 | 0.00 | 0.00 | 42 | 1005.4 |
| 20260506131303 | 67 | 224 | 1.0 | 4.0 | 0.00 | 0.00 | 0.00 | 44 | 1005.4 |
| 20260506131203 | 67 | 226 | 1.0 | 2.0 | 0.00 | 0.00 | 0.00 | 42 | 1005.4 |
| 20260506131104 | 67 | 229 | 1.0 | 3.0 | 0.00 | 0.00 | 0.00 | 43 | 1005.4 |
| 20260506131004 | 67 | 230 | 1.0 | 3.0 | 0.00 | 0.00 | 0.00 | 44 | 1005.4 |
| 20260506130903 | 67 | 233 | 1.0 | 3.0 | 0.00 | 0.00 | 0.00 | 42 | 1005.4 |
| 20260506130803 | 67 | 236 | 0.0 | 3.0 | 0.00 | 0.00 | 0.00 | 44 | 1005.4 |
| 20260506130703 | 67 | 246 | 0.0 | 1.0 | 0.00 | 0.00 | 0.00 | 44 | 1005.4 |
| 20260506130604 | 67 | 254 | 0.0 | 1.0 | 0.00 | 0.00 | 0.00 | 44 | 1005.4 |
| 20260506130504 | 67 | 258 | 1.0 | 3.0 | 0.00 | 0.00 | 0.00 | 48 | 1005.4 |
| 20260506130403 | 67 | 257 | 1.0 | 3.0 | 0.00 | 0.00 | 0.00 | 48 | 1005.4 |
| 20260506130303 | 66 | 252 | 1.0 | 3.0 | 0.00 | 0.00 | 0.00 | 47 | 1005.5 |
| 20260506130203 | 66 | 248 | 2.0 | 4.0 | 0.00 | 0.00 | 0.00 | 47 | 1005.5 |
| 20260506130104 | 67 | 242 | 2.0 | 4.0 | 0.00 | 0.00 | 0.00 | 50 | 1005.5 |
| 20260506130003 | 66 | 239 | 2.0 | 4.0 | 0.00 | 0.00 | 0.00 | 50 | 1005.5 |
| 20260506125903 | 66 | 234 | 2.0 | 4.0 | 0.00 | 0.00 | 0.00 | 49 | 1005.5 |
| 20260506125803 | 66 | 232 | 2.0 | 4.0 | 0.00 | 0.00 | 0.00 | 49 | 1005.5 |
| 20260506125703 | 66 | 232 | 2.0 | 4.0 | 0.00 | 0.00 | 0.00 | 51 | 1005.5 |
| 20260506125604 | 66 | 232 | 2.0 | 4.0 | 0.00 | 0.00 | 0.00 | 49 | 1005.5 |
| 20260506125503 | 67 | 234 | 2.0 | 4.0 | 0.00 | 0.00 | 0.00 | 48 | 1005.5 |
| 20260506125403 | 67 | 238 | 2.0 | 4.0 | 0.00 | 0.00 | 0.00 | 48 | 1005.5 |
| 20260506125305 | 67 | 244 | 1.0 | 4.0 | 0.00 | 0.00 | 0.00 | 47 | 1005.5 |
| 20260506125204 | 67 | 250 | 2.0 | 4.0 | 0.00 | 0.00 | 0.00 | 47 | 1005.5 |
| 20260506125104 | 67 | 252 | 2.0 | 4.0 | 0.00 | 0.00 | 0.00 | 46 | 1005.5 |
| 20260506125003 | 67 | 257 | 2.0 | 4.0 | 0.00 | 0.00 | 0.00 | 46 | 1005.5 |
| 20260506124903 | 67 | 260 | 2.0 | 4.0 | 0.00 | 0.00 | 0.00 | 45 | 1005.5 |
| 20260506124803 | 68 | 262 | 2.0 | 4.0 | 0.00 | 0.00 | 0.00 | 47 | 1005.5 |
| 20260506124704 | 68 | 265 | 2.0 | 6.0 | 0.00 | 0.00 | 0.00 | 47 | 1005.5 |
| 20260506124604 | 68 | 268 | 2.0 | 6.0 | 0.00 | 0.00 | 0.00 | 47 | 1005.5 |
| 20260506124504 | 68 | 271 | 2.0 | 6.0 | 0.00 | 0.00 | 0.00 | 48 | 1005.6 |
| 20260506124403 | 67 | 270 | 3.0 | 6.0 | 0.00 | 0.00 | 0.00 | 46 | 1005.6 |
| 20260506124303 | 67 | 267 | 4.0 | 5.0 | 0.00 | 0.00 | 0.00 | 48 | 1005.6 |
| 20260506124203 | 67 | 263 | 4.0 | 5.0 | 0.00 | 0.00 | 0.00 | 49 | 1005.6 |
| 20260506124104 | 67 | 257 | 4.0 | 5.0 | 0.00 | 0.00 | 0.00 | 47 | 1005.6 |
| 20260506124004 | 67 | 253 | 4.0 | 5.0 | 0.00 | 0.00 | 0.00 | 47 | 1005.6 |
| 20260506123904 | 67 | 251 | 4.0 | 5.0 | 0.00 | 0.00 | 0.00 | 46 | 1005.7 |
| 20260506123804 | 67 | 252 | 4.0 | 6.0 | 0.00 | 0.00 | 0.00 | 46 | 1005.7 |
| 20260506123703 | 67 | 254 | 3.0 | 6.0 | 0.00 | 0.00 | 0.00 | 45 | 1005.7 |
| 20260506123603 | 67 | 255 | 2.0 | 6.0 | 0.00 | 0.00 | 0.00 | 44 | 1005.7 |
| 20260506123503 | 67 | 260 | 2.0 | 6.0 | 0.00 | 0.00 | 0.00 | 44 | 1005.8 |
| 20260506123404 | 67 | 269 | 1.0 | 4.0 | 0.00 | 0.00 | 0.00 | 44 | 1005.8 |
| 20260506123304 | 67 | 277 | 1.0 | 3.0 | 0.00 | 0.00 | 0.00 | 46 | 1005.8 |
| 20260506123204 | 67 | 281 | 2.0 | 4.0 | 0.00 | 0.00 | 0.00 | 44 | 1005.8 |
| 20260506123103 | 67 | 284 | 2.0 | 4.0 | 0.00 | 0.00 | 0.00 | 45 | 1005.8 |
| 20260506123003 | 67 | 288 | 1.0 | 4.0 | 0.00 | 0.00 | 0.00 | 45 | 1005.9 |
| 20260506122903 | 67 | 297 | 2.0 | 5.0 | 0.00 | 0.00 | 0.00 | 44 | 1005.9 |
| 20260506122803 | 67 | 304 | 2.0 | 5.0 | 0.00 | 0.00 | 0.00 | 44 | 1005.9 |
| 20260506122703 | 67 | 306 | 2.0 | 5.0 | 0.00 | 0.00 | 0.00 | 47 | 1005.9 |
| 20260506122603 | 67 | 308 | 2.0 | 5.0 | 0.00 | 0.00 | 0.00 | 48 | 1006.0 |
| 20260506122503 | 67 | 314 | 2.0 | 5.0 | 0.00 | 0.00 | 0.00 | 47 | 1006.0 |
| 20260506122403 | 66 | 323 | 1.0 | 4.0 | 0.00 | 0.00 | 0.00 | 47 | 1006.0 |
| 20260506122305 | 66 | 332 | 0.0 | 2.0 | 0.00 | 0.00 | 0.00 | 47 | 1006.0 |
| 20260506122204 | 66 | 346 | 1.0 | 2.0 | 0.00 | 0.00 | 0.00 | 46 | 1006.0 |
| 20260506122103 | 66 | 350 | 1.0 | 2.0 | 0.00 | 0.00 | 0.00 | 47 | 1006.0 |
| 20260506122003 | 66 | 351 | 1.0 | 3.0 | 0.00 | 0.00 | 0.00 | 46 | 1006.0 |
| 20260506121903 | 66 | 351 | 1.0 | 3.0 | 0.00 | 0.00 | 0.00 | 46 | 1006.0 |
| 20260506121803 | 66 | 348 | 1.0 | 3.0 | 0.00 | 0.00 | 0.00 | 46 | 1006.0 |
| 20260506121703 | 66 | 347 | 1.0 | 3.0 | 0.00 | 0.00 | 0.00 | 46 | 1006.1 |
| 20260506121603 | 67 | 340 | 1.0 | 5.0 | 0.00 | 0.00 | 0.00 | 46 | 1006.1 |
| 20260506121504 | 67 | 340 | 1.0 | 5.0 | 0.00 | 0.00 | 0.00 | 46 | 1006.1 |
| 20260506121404 | 67 | 340 | 2.0 | 5.0 | 0.00 | 0.00 | 0.00 | 46 | 1006.1 |
| 20260506121304 | 67 | 340 | 2.0 | 5.0 | 0.00 | 0.00 | 0.00 | 46 | 1006.0 |
| 20260506121203 | 67 | 337 | 1.0 | 4.0 | 0.00 | 0.00 | 0.00 | 47 | 1006.0 |
| 20260506121103 | 67 | 334 | 1.0 | 4.0 | 0.00 | 0.00 | 0.00 | 46 | 1006.1 |
| 20260506121003 | 67 | 330 | 1.0 | 4.0 | 0.00 | 0.00 | 0.00 | 48 | 1006.0 |
| 20260506120904 | 67 | 322 | 1.0 | 4.0 | 0.00 | 0.00 | 0.00 | 48 | 1006.0 |
| 20260506120803 | 66 | 310 | 1.0 | 3.0 | 0.00 | 0.00 | 0.00 | 47 | 1006.1 |
| 20260506120703 | 67 | 305 | 1.0 | 3.0 | 0.00 | 0.00 | 0.00 | 47 | 1006.1 |
| 20260506120603 | 67 | 302 | 1.0 | 3.0 | 0.00 | 0.00 | 0.00 | 48 | 1006.1 |
| 20260506120504 | 67 | 306 | 2.0 | 5.0 | 0.00 | 0.00 | 0.00 | 47 | 1006.1 |
| 20260506120404 | 67 | 309 | 2.0 | 6.0 | 0.00 | 0.00 | 0.00 | 47 | 1006.1 |
| 20260506120304 | 67 | 310 | 2.0 | 6.0 | 0.00 | 0.00 | 0.00 | 47 | 1006.1 |
| 20260506120203 | 67 | 312 | 2.0 | 6.0 | 0.00 | 0.00 | 0.00 | 47 | 1006.1 |
| 20260506120103 | 68 | 310 | 2.0 | 6.0 | 0.00 | 0.00 | 0.00 | 47 | 1006.1 |
| 20260506120004 | 67 | 303 | 2.0 | 6.0 | 0.00 | 0.00 | 0.00 | 48 | 1006.1 |
| 20260506115903 | 67 | 300 | 4.0 | 8.0 | 0.00 | 0.00 | 0.00 | 48 | 1006.1 |
| 20260506115804 | 67 | 300 | 4.0 | 8.0 | 0.00 | 0.00 | 0.00 | 47 | 1006.1 |
| 20260506115704 | 67 | 301 | 4.0 | 8.0 | 0.00 | 0.00 | 0.00 | 47 | 1006.1 |
| 20260506115604 | 67 | 302 | 4.0 | 8.0 | 0.00 | 0.00 | 0.00 | 47 | 1006.2 |
| 20260506115504 | 67 | 305 | 3.0 | 6.0 | 0.00 | 0.00 | 0.00 | 53 | 1006.2 |
| 20260506115403 | 66 | 306 | 3.0 | 5.0 | 0.00 | 0.00 | 0.00 | 51 | 1006.2 |
| 20260506115306 | 65 | 304 | 3.0 | 5.0 | 0.00 | 0.00 | 0.00 | 52 | 1006.2 |
| 20260506115203 | 65 | 303 | 3.0 | 5.0 | 0.00 | 0.00 | 0.00 | 51 | 1006.2 |
| 20260506115104 | 64 | 302 | 4.0 | 5.0 | 0.00 | 0.00 | 0.00 | 50 | 1006.2 |
| 20260506115003 | 65 | 299 | 4.0 | 6.0 | 0.00 | 0.00 | 0.00 | 50 | 1006.4 |
| 20260506114903 | 65 | 298 | 4.0 | 6.0 | 0.00 | 0.00 | 0.00 | 51 | 1006.4 |
| 20260506114803 | 65 | 296 | 4.0 | 6.0 | 0.00 | 0.00 | 0.00 | 51 | 1006.4 |
| 20260506114703 | 65 | 296 | 3.0 | 6.0 | 0.00 | 0.00 | 0.00 | 50 | 1006.4 |
| 20260506114604 | 66 | 297 | 3.0 | 5.0 | 0.00 | 0.00 | 0.00 | 51 | 1006.4 |
| 20260506114503 | 66 | 295 | 3.0 | 6.0 | 0.00 | 0.00 | 0.00 | 50 | 1006.4 |
| 20260506114403 | 66 | 293 | 3.0 | 6.0 | 0.00 | 0.00 | 0.00 | 49 | 1006.4 |
| 20260506114303 | 66 | 292 | 3.0 | 6.0 | 0.00 | 0.00 | 0.00 | 47 | 1006.4 |
| 20260506114204 | 66 | 290 | 4.0 | 6.0 | 0.00 | 0.00 | 0.00 | 48 | 1006.4 |
| 20260506114103 | 66 | 287 | 4.0 | 6.0 | 0.00 | 0.00 | 0.00 | 50 | 1006.4 |
| 20260506114003 | 66 | 285 | 4.0 | 6.0 | 0.00 | 0.00 | 0.00 | 49 | 1006.5 |
| 20260506113903 | 66 | 283 | 4.0 | 6.0 | 0.00 | 0.00 | 0.00 | 51 | 1006.5 |
| 20260506113804 | 65 | 284 | 4.0 | 6.0 | 0.00 | 0.00 | 0.00 | 52 | 1006.5 |
| 20260506113704 | 65 | 288 | 4.0 | 7.0 | 0.00 | 0.00 | 0.00 | 50 | 1006.5 |
| 20260506113604 | 65 | 293 | 4.0 | 8.0 | 0.00 | 0.00 | 0.00 | 49 | 1006.5 |
| 20260506113503 | 66 | 299 | 6.0 | 9.0 | 0.00 | 0.00 | 0.00 | 51 | 1006.5 |
| 20260506113403 | 65 | 303 | 6.0 | 9.0 | 0.00 | 0.00 | 0.00 | 51 | 1006.5 |
| 20260506113303 | 65 | 305 | 5.0 | 9.0 | 0.00 | 0.00 | 0.00 | 51 | 1006.5 |
| 20260506113204 | 65 | 306 | 5.0 | 9.0 | 0.00 | 0.00 | 0.00 | 50 | 1006.5 |
| 20260506113104 | 65 | 304 | 4.0 | 7.0 | 0.00 | 0.00 | 0.00 | 51 | 1006.5 |
| 20260506113003 | 65 | 303 | 4.0 | 6.0 | 0.00 | 0.00 | 0.00 | 51 | 1006.5 |
| 20260506112903 | 65 | 302 | 4.0 | 6.0 | 0.00 | 0.00 | 0.00 | 51 | 1006.5 |
| 20260506112803 | 65 | 302 | 3.0 | 5.0 | 0.00 | 0.00 | 0.00 | 50 | 1006.6 |
| 20260506112704 | 65 | 303 | 3.0 | 6.0 | 0.00 | 0.00 | 0.00 | 50 | 1006.6 |
| 20260506112603 | 65 | 304 | 4.0 | 8.0 | 0.00 | 0.00 | 0.00 | 49 | 1006.6 |
| 20260506112503 | 65 | 304 | 5.0 | 8.0 | 0.00 | 0.00 | 0.00 | 50 | 1006.6 |
| 20260506112403 | 65 | 306 | 6.0 | 8.0 | 0.00 | 0.00 | 0.00 | 50 | 1006.6 |
| 20260506112306 | 65 | 309 | 5.0 | 8.0 | 0.00 | 0.00 | 0.00 | 51 | 1006.6 |
| 20260506112204 | 65 | 314 | 5.0 | 8.0 | 0.00 | 0.00 | 0.00 | 50 | 1006.6 |
| 20260506112103 | 65 | 320 | 3.0 | 7.0 | 0.00 | 0.00 | 0.00 | 51 | 1006.6 |
| 20260506112003 | 65 | 325 | 2.0 | 5.0 | 0.00 | 0.00 | 0.00 | 49 | 1006.7 |
| 20260506111903 | 66 | 332 | 2.0 | 5.0 | 0.00 | 0.00 | 0.00 | 51 | 1006.7 |
| 20260506111804 | 65 | 343 | 2.0 | 6.0 | 0.00 | 0.00 | 0.00 | 51 | 1006.7 |
| 20260506111704 | 65 | 350 | 2.0 | 6.0 | 0.00 | 0.00 | 0.00 | 50 | 1006.7 |
| 20260506111603 | 65 | 354 | 4.0 | 7.0 | 0.00 | 0.00 | 0.00 | 50 | 1006.8 |
| 20260506111503 | 65 | 357 | 4.0 | 7.0 | 0.00 | 0.00 | 0.00 | 50 | 1006.8 |
| 20260506111403 | 65 | 359 | 5.0 | 7.0 | 0.00 | 0.00 | 0.00 | 50 | 1006.8 |
| 20260506111304 | 65 | 1 | 4.0 | 7.0 | 0.00 | 0.00 | 0.00 | 50 | 1006.8 |
| 20260506111204 | 66 | 5 | 4.0 | 6.0 | 0.00 | 0.00 | 0.00 | 50 | 1006.8 |
| 20260506111103 | 66 | 11 | 4.0 | 6.0 | 0.00 | 0.00 | 0.00 | 52 | 1006.8 |
| 20260506111003 | 65 | 18 | 4.0 | 7.0 | 0.00 | 0.00 | 0.00 | 50 | 1006.8 |
| 20260506110903 | 66 | 23 | 4.0 | 7.0 | 0.00 | 0.00 | 0.00 | 50 | 1006.8 |
| 20260506110803 | 65 | 27 | 4.0 | 7.0 | 0.00 | 0.00 | 0.00 | 49 | 1006.8 |
| 20260506110704 | 66 | 31 | 3.0 | 7.0 | 0.00 | 0.00 | 0.00 | 49 | 1006.8 |
| 20260506110603 | 66 | 36 | 2.0 | 4.0 | 0.00 | 0.00 | 0.00 | 50 | 1006.8 |
| 20260506110503 | 67 | 41 | 2.0 | 4.0 | 0.00 | 0.00 | 0.00 | 49 | 1006.8 |
| 20260506110403 | 67 | 46 | 2.0 | 4.0 | 0.00 | 0.00 | 0.00 | 50 | 1006.8 |
| 20260506110303 | 67 | 50 | 2.0 | 4.0 | 0.00 | 0.00 | 0.00 | 49 | 1006.8 |
| 20260506110204 | 66 | 55 | 2.0 | 4.0 | 0.00 | 0.00 | 0.00 | 49 | 1006.8 |
| 20260506110004 | 66 | 60 | 2.0 | 4.0 | 0.00 | 0.00 | 0.00 | 52 | 1006.8 |
| 20260506105903 | 66 | 63 | 2.0 | 4.0 | 0.00 | 0.00 | 0.00 | 51 | 1006.8 |
| 20260506105804 | 66 | 65 | 2.0 | 4.0 | 0.00 | 0.00 | 0.00 | 50 | 1006.8 |
| 20260506105703 | 66 | 66 | 2.0 | 4.0 | 0.00 | 0.00 | 0.00 | 50 | 1006.8 |
| 20260506105603 | 66 | 67 | 2.0 | 4.0 | 0.00 | 0.00 | 0.00 | 50 | 1006.8 |
| 20260506105503 | 66 | 67 | 2.0 | 3.0 | 0.00 | 0.00 | 0.00 | 50 | 1006.8 |
| 20260506105404 | 66 | 68 | 2.0 | 3.0 | 0.00 | 0.00 | 0.00 | 52 | 1006.8 |
| 20260506105305 | 65 | 69 | 1.0 | 3.0 | 0.00 | 0.00 | 0.00 | 52 | 1006.8 |
| 20260506105204 | 65 | 74 | 1.0 | 3.0 | 0.00 | 0.00 | 0.00 | 50 | 1006.8 |
| 20260506105103 | 65 | 80 | 1.0 | 3.0 | 0.00 | 0.00 | 0.00 | 51 | 1006.8 |
| 20260506105003 | 65 | 86 | 1.0 | 4.0 | 0.00 | 0.00 | 0.00 | 50 | 1006.9 |
| 20260506104903 | 65 | 88 | 2.0 | 5.0 | 0.00 | 0.00 | 0.00 | 52 | 1006.9 |
| 20260506104803 | 64 | 92 | 2.0 | 5.0 | 0.00 | 0.00 | 0.00 | 53 | 1006.9 |
| 20260506104704 | 64 | 94 | 3.0 | 5.0 | 0.00 | 0.00 | 0.00 | 53 | 1006.9 |
| 20260506104604 | 64 | 98 | 3.0 | 5.0 | 0.00 | 0.00 | 0.00 | 53 | 1006.9 |
| 20260506104503 | 65 | 107 | 2.0 | 5.0 | 0.00 | 0.00 | 0.00 | 53 | 1006.9 |
| 20260506104403 | 65 | 113 | 3.0 | 5.0 | 0.00 | 0.00 | 0.00 | 54 | 1006.9 |
| 20260506104303 | 65 | 119 | 3.0 | 5.0 | 0.00 | 0.00 | 0.00 | 53 | 1006.9 |
| 20260506104203 | 65 | 121 | 3.0 | 6.0 | 0.00 | 0.00 | 0.00 | 55 | 1007.0 |
| 20260506104104 | 64 | 122 | 4.0 | 6.0 | 0.00 | 0.00 | 0.00 | 55 | 1007.0 |
| 20260506104004 | 64 | 121 | 4.0 | 6.0 | 0.00 | 0.00 | 0.00 | 55 | 1007.0 |
| 20260506103903 | 63 | 120 | 3.0 | 6.0 | 0.00 | 0.00 | 0.00 | 55 | 1007.0 |
| 20260506103803 | 63 | 121 | 3.0 | 6.0 | 0.00 | 0.00 | 0.00 | 55 | 1007.0 |
| 20260506103703 | 63 | 122 | 2.0 | 6.0 | 0.00 | 0.00 | 0.00 | 56 | 1007.0 |
| 20260506103604 | 63 | 126 | 1.0 | 4.0 | 0.00 | 0.00 | 0.00 | 56 | 1007.0 |
| 20260506103504 | 63 | 131 | 1.0 | 4.0 | 0.00 | 0.00 | 0.00 | 56 | 1007.0 |
| 20260506103403 | 63 | 134 | 1.0 | 4.0 | 0.00 | 0.00 | 0.00 | 56 | 1007.1 |
| 20260506103303 | 63 | 133 | 1.0 | 4.0 | 0.00 | 0.00 | 0.00 | 56 | 1007.1 |
| 20260506103203 | 63 | 131 | 2.0 | 4.0 | 0.00 | 0.00 | 0.00 | 56 | 1007.1 |
| 20260506103104 | 63 | 129 | 2.0 | 5.0 | 0.00 | 0.00 | 0.00 | 55 | 1007.1 |
| 20260506103004 | 63 | 127 | 2.0 | 5.0 | 0.00 | 0.00 | 0.00 | 55 | 1007.1 |
| 20260506102904 | 63 | 127 | 2.0 | 5.0 | 0.00 | 0.00 | 0.00 | 54 | 1007.1 |
| 20260506102804 | 64 | 128 | 2.0 | 5.0 | 0.00 | 0.00 | 0.00 | 53 | 1007.1 |
| 20260506102704 | 65 | 129 | 1.0 | 3.0 | 0.00 | 0.00 | 0.00 | 52 | 1007.1 |
| 20260506102604 | 65 | 130 | 1.0 | 3.0 | 0.00 | 0.00 | 0.00 | 49 | 1007.1 |
| 20260506102504 | 66 | 130 | 0.0 | 3.0 | 0.00 | 0.00 | 0.00 | 47 | 1007.1 |
| 20260506102404 | 66 | 123 | 0.0 | 3.0 | 0.00 | 0.00 | 0.00 | 49 | 1007.1 |
| 20260506102305 | 65 | 113 | 0.0 | 1.0 | 0.00 | 0.00 | 0.00 | 49 | 1007.1 |
| 20260506102203 | 65 | 112 | 0.0 | 1.0 | 0.00 | 0.00 | 0.00 | 49 | 1007.1 |
| 20260506102103 | 64 | 116 | 1.0 | 3.0 | 0.00 | 0.00 | 0.00 | 49 | 1007.1 |
| 20260506102003 | 64 | 116 | 1.0 | 3.0 | 0.00 | 0.00 | 0.00 | 49 | 1007.2 |
| 20260506101903 | 65 | 117 | 1.0 | 3.0 | 0.00 | 0.00 | 0.00 | 49 | 1007.2 |
| 20260506101804 | 65 | 119 | 1.0 | 3.0 | 0.00 | 0.00 | 0.00 | 48 | 1007.2 |
| 20260506101704 | 65 | 128 | 0.0 | 2.0 | 0.00 | 0.00 | 0.00 | 49 | 1007.2 |
| 20260506101603 | 65 | 134 | 0.0 | 3.0 | 0.00 | 0.00 | 0.00 | 48 | 1007.2 |
| 20260506101503 | 65 | 141 | 1.0 | 8.0 | 0.00 | 0.00 | 0.00 | 48 | 1007.2 |
| 20260506101403 | 65 | 146 | 3.0 | 10.0 | 0.00 | 0.00 | 0.00 | 48 | 1007.2 |
| 20260506101304 | 0 | 0.0 | 0.0 | 0.00 | 0.00 | 0.00 | |||
| 20260506101103 | 67 | 152 | 3.0 | 10.0 | 0.00 | 0.00 | 0.00 | 46 | 1007.2 |
| 20260506101003 | 68 | 155 | 2.0 | 9.0 | 0.00 | 0.00 | 0.00 | 47 | 1007.2 |
| 20260506100903 | 67 | 156 | 1.0 | 4.0 | 0.00 | 0.00 | 0.00 | 48 | 1007.2 |
| 20260506100803 | 67 | 157 | 1.0 | 4.0 | 0.00 | 0.00 | 0.00 | 48 | 1007.2 |
| 20260506100704 | 67 | 161 | 1.0 | 2.0 | 0.00 | 0.00 | 0.00 | 47 | 1007.2 |
| 20260506100604 | 66 | 168 | 1.0 | 3.0 | 0.00 | 0.00 | 0.00 | 46 | 1007.2 |
| 20260506100503 | 66 | 171 | 1.0 | 4.0 | 0.00 | 0.00 | 0.00 | 46 | 1007.2 |
| 20260506100403 | 66 | 175 | 2.0 | 6.0 | 0.00 | 0.00 | 0.00 | 47 | 1007.2 |
| 20260506100303 | 66 | 178 | 2.0 | 6.0 | 0.00 | 0.00 | 0.00 | 48 | 1007.2 |
| 20260506100204 | 65 | 183 | 2.0 | 6.0 | 0.00 | 0.00 | 0.00 | 48 | 1007.2 |
| 20260506100104 | 65 | 190 | 2.0 | 6.0 | 0.00 | 0.00 | 0.00 | 48 | 1007.2 |
| 20260506100003 | 65 | 196 | 2.0 | 5.0 | 0.00 | 0.00 | 0.00 | 48 | 1007.2 |
| 20260506095903 | 66 | 199 | 2.0 | 5.0 | 0.00 | 0.00 | 0.00 | 48 | 1007.2 |
| 20260506095803 | 66 | 201 | 3.0 | 5.0 | 0.00 | 0.00 | 0.00 | 50 | 1007.2 |
| 20260506095703 | 65 | 204 | 2.0 | 4.0 | 0.00 | 0.00 | 0.00 | 48 | 1007.2 |
| 20260506095604 | 66 | 210 | 3.0 | 5.0 | 0.00 | 0.00 | 0.00 | 50 | 1007.2 |
| 20260506095504 | 65 | 215 | 3.0 | 5.0 | 0.00 | 0.00 | 0.00 | 50 | 1007.2 |
| 20260506095404 | 65 | 218 | 2.0 | 5.0 | 0.00 | 0.00 | 0.00 | 51 | 1007.2 |
| 20260506095305 | 64 | 223 | 2.0 | 5.0 | 0.00 | 0.00 | 0.00 | 50 | 1007.3 |
| 20260506095203 | 64 | 225 | 2.0 | 5.0 | 0.00 | 0.00 | 0.00 | 49 | 1007.3 |
| 20260506095103 | 64 | 224 | 2.0 | 4.0 | 0.00 | 0.00 | 0.00 | 51 | 1007.3 |
| 20260506095003 | 64 | 222 | 2.0 | 4.0 | 0.00 | 0.00 | 0.00 | 50 | 1007.3 |
| 20260506094903 | 64 | 219 | 2.0 | 4.0 | 0.00 | 0.00 | 0.00 | 50 | 1007.3 |
| 20260506094804 | 64 | 215 | 2.0 | 4.0 | 0.00 | 0.00 | 0.00 | 49 | 1007.3 |
| 20260506094704 | 65 | 213 | 2.0 | 4.0 | 0.00 | 0.00 | 0.00 | 49 | 1007.3 |
| 20260506094603 | 65 | 211 | 1.0 | 3.0 | 0.00 | 0.00 | 0.00 | 50 | 1007.3 |
| 20260506094503 | 65 | 210 | 2.0 | 4.0 | 0.00 | 0.00 | 0.00 | 50 | 1007.3 |
| 20260506094403 | 65 | 207 | 2.0 | 4.0 | 0.00 | 0.00 | 0.00 | 51 | 1007.3 |
| 20260506094303 | 64 | 205 | 2.0 | 4.0 | 0.00 | 0.00 | 0.00 | 51 | 1007.3 |
| 20260506094204 | 64 | 203 | 3.0 | 7.0 | 0.00 | 0.00 | 0.00 | 49 | 1007.3 |
| 20260506094103 | 64 | 202 | 3.0 | 7.0 | 0.00 | 0.00 | 0.00 | 50 | 1007.3 |
| 20260506094004 | 64 | 202 | 2.0 | 7.0 | 0.00 | 0.00 | 0.00 | 50 | 1007.3 |
| 20260506093903 | 65 | 204 | 2.0 | 7.0 | 0.00 | 0.00 | 0.00 | 50 | 1007.4 |
| 20260506093803 | 64 | 204 | 1.0 | 7.0 | 0.00 | 0.00 | 0.00 | 50 | 1007.4 |
| 20260506093703 | 64 | 191 | 1.0 | 2.0 | 0.00 | 0.00 | 0.00 | 50 | 1007.4 |
| 20260506093604 | 63 | 181 | 1.0 | 2.0 | 0.00 | 0.00 | 0.00 | 50 | 1007.4 |
| 20260506093504 | 63 | 174 | 1.0 | 4.0 | 0.00 | 0.00 | 0.00 | 50 | 1007.4 |
| 20260506093404 | 63 | 168 | 2.0 | 6.0 | 0.00 | 0.00 | 0.00 | 50 | 1007.4 |
| 20260506093304 | 63 | 163 | 2.0 | 6.0 | 0.00 | 0.00 | 0.00 | 50 | 1007.4 |
| 20260506093204 | 64 | 158 | 4.0 | 8.0 | 0.00 | 0.00 | 0.00 | 50 | 1007.4 |
| 20260506093103 | 64 | 152 | 4.0 | 10.0 | 0.00 | 0.00 | 0.00 | 50 | 1007.4 |
| 20260506093004 | 64 | 150 | 4.0 | 10.0 | 0.00 | 0.00 | 0.00 | 52 | 1007.4 |
| 20260506092903 | 64 | 148 | 4.0 | 10.0 | 0.00 | 0.00 | 0.00 | 52 | 1007.5 |
| 20260506092803 | 64 | 148 | 3.0 | 10.0 | 0.00 | 0.00 | 0.00 | 54 | 1007.5 |
| 20260506092703 | 64 | 153 | 3.0 | 8.0 | 0.00 | 0.00 | 0.00 | 54 | 1007.5 |
| 20260506092603 | 64 | 158 | 4.0 | 8.0 | 0.00 | 0.00 | 0.00 | 53 | 1007.5 |
| 20260506092504 | 64 | 161 | 4.0 | 8.0 | 0.00 | 0.00 | 0.00 | 52 | 1007.5 |
| 20260506092404 | 64 | 164 | 3.0 | 7.0 | 0.00 | 0.00 | 0.00 | 51 | 1007.5 |
| 20260506092306 | 64 | 165 | 3.0 | 8.0 | 0.00 | 0.00 | 0.00 | 51 | 1007.6 |
| 20260506092204 | 64 | 163 | 3.0 | 8.0 | 0.00 | 0.00 | 0.00 | 53 | 1007.6 |
| 20260506092104 | 64 | 159 | 3.0 | 8.0 | 0.00 | 0.00 | 0.00 | 52 | 1007.6 |
| 20260506092003 | 64 | 156 | 3.0 | 8.0 | 0.00 | 0.00 | 0.00 | 51 | 1007.6 |
| 20260506091903 | 64 | 146 | 3.0 | 8.0 | 0.00 | 0.00 | 0.00 | 52 | 1007.6 |
| 20260506091803 | 64 | 141 | 3.0 | 7.0 | 0.00 | 0.00 | 0.00 | 53 | 1007.6 |